| time (UTC) | temp C | wind direction | speed KPH | gust KPH | rain 1hr cm | rain 24hr cm | rain mn cm | humidity % | barometer mb |
| 20260510070203 | -17 | 0.0 | 0.0 | 0.00 | 0.05 | 0.00 | 1009.6 | ||
| 20260510070047 | -17 | 0.0 | 0.0 | 0.00 | 0.05 | 0.00 | 1009.6 | ||
| 20260510065945 | -17 | 0.0 | 0.0 | 0.00 | 0.05 | 0.00 | 1009.7 | ||
| 20260510065844 | 24 | 0 | 0.0 | 3.2 | 0.00 | 0.05 | 0.00 | 90 | 1009.7 |
| 20260510065745 | 24 | 0 | 0.0 | 3.2 | 0.00 | 0.05 | 0.00 | 90 | 1009.7 |
| 20260510065644 | 24 | 0 | 0.0 | 3.2 | 0.00 | 0.05 | 0.00 | 90 | 1009.7 |
| 20260510065545 | 24 | 0 | 0.0 | 3.2 | 0.00 | 0.05 | 0.00 | 90 | 1009.7 |
| 20260510065442 | 24 | 0 | 0.0 | 3.2 | 0.00 | 0.05 | 0.00 | 90 | 1009.7 |
| 20260510065342 | 24 | 0 | 0.0 | 3.2 | 0.00 | 0.05 | 0.00 | 90 | 1009.7 |
| 20260510065243 | 24 | 0 | 0.0 | 3.2 | 0.00 | 0.05 | 0.00 | 90 | 1009.7 |
| 20260510065142 | 24 | 0 | 0.0 | 3.2 | 0.00 | 0.05 | 0.00 | 90 | 1009.7 |
| 20260510065042 | 24 | 0 | 0.0 | 4.8 | 0.00 | 0.05 | 0.00 | 90 | 1009.7 |
| 20260510064942 | 24 | 0 | 0.0 | 4.8 | 0.00 | 0.05 | 0.00 | 90 | 1009.7 |
| 20260510064842 | 24 | 0 | 0.0 | 4.8 | 0.00 | 0.05 | 0.00 | 90 | 1009.7 |
| 20260510064742 | 24 | 0 | 0.0 | 4.8 | 0.00 | 0.05 | 0.00 | 90 | 1009.7 |
| 20260510064642 | 24 | 0 | 0.0 | 4.8 | 0.00 | 0.05 | 0.00 | 90 | 1009.7 |
| 20260510064542 | 24 | 0 | 1.6 | 4.8 | 0.00 | 0.05 | 0.00 | 90 | 1009.7 |
| 20260510064442 | 24 | 0 | 1.6 | 4.8 | 0.00 | 0.05 | 0.00 | 90 | 1009.7 |
| 20260510064342 | 24 | 0 | 1.6 | 4.8 | 0.00 | 0.05 | 0.00 | 90 | 1009.7 |
| 20260510064241 | 24 | 0 | 1.6 | 6.4 | 0.00 | 0.05 | 0.00 | 90 | 1009.6 |
| 20260510064142 | 24 | 0 | 1.6 | 6.4 | 0.00 | 0.05 | 0.00 | 90 | 1009.6 |
| 20260510064040 | 24 | 0 | 1.6 | 6.4 | 0.00 | 0.05 | 0.00 | 90 | 1009.6 |
| 20260510063940 | 24 | 0 | 3.2 | 6.4 | 0.00 | 0.05 | 0.00 | 90 | 1009.6 |
| 20260510063841 | 24 | 0 | 3.2 | 6.4 | 0.00 | 0.05 | 0.00 | 90 | 1009.8 |
| 20260510063741 | 24 | 0 | 3.2 | 6.4 | 0.00 | 0.05 | 0.00 | 90 | 1009.7 |
| 20260510063640 | 24 | 0 | 3.2 | 6.4 | 0.00 | 0.05 | 0.00 | 90 | 1009.6 |
| 20260510063540 | 24 | 0 | 3.2 | 6.4 | 0.00 | 0.05 | 0.00 | 90 | 1009.6 |
| 20260510063441 | 24 | 0 | 3.2 | 6.4 | 0.00 | 0.05 | 0.00 | 90 | 1009.7 |
| 20260510063340 | 24 | 0 | 3.2 | 6.4 | 0.00 | 0.05 | 0.00 | 90 | 1009.7 |
| 20260510063240 | 24 | 0 | 3.2 | 6.4 | 0.00 | 0.05 | 0.00 | 90 | 1009.7 |
| 20260510063141 | 24 | 0 | 3.2 | 6.4 | 0.00 | 0.05 | 0.00 | 90 | 1009.7 |
| 20260510063040 | 24 | 0 | 3.2 | 4.8 | 0.00 | 0.05 | 0.00 | 90 | 1009.6 |
| 20260510062940 | 24 | 0 | 1.6 | 4.8 | 0.00 | 0.05 | 0.00 | 90 | 1009.7 |
| 20260510062841 | 24 | 0 | 1.6 | 4.8 | 0.00 | 0.05 | 0.00 | 90 | 1009.7 |
| 20260510062740 | 24 | 0 | 0.0 | 1.6 | 0.00 | 0.05 | 0.00 | 89 | 1009.6 |
| 20260510062641 | -17 | 0.0 | 0.0 | 0.00 | 0.05 | 0.00 | 1009.7 | ||
| 20260510062540 | -17 | 0.0 | 0.0 | 0.00 | 0.05 | 0.00 | 1009.6 | ||
| 20260510062438 | -17 | 0.0 | 0.0 | 0.00 | 0.05 | 0.00 | 1009.6 | ||
| 20260510062339 | -17 | 0.0 | 0.0 | 0.00 | 0.05 | 0.00 | 1009.6 | ||
| 20260510062239 | -17 | 0.0 | 0.0 | 0.00 | 0.05 | 0.00 | 1009.6 | ||
| 20260510062139 | -17 | 0.0 | 0.0 | 0.00 | 0.05 | 0.00 | 1009.7 | ||
| 20260510062038 | -17 | 0.0 | 0.0 | 0.00 | 0.05 | 0.00 | 1009.7 | ||
| 20260510061935 | -17 | 0.0 | 0.0 | 0.00 | 0.05 | 0.00 | 1009.6 | ||
| 20260510061835 | -17 | 0.0 | 0.0 | 0.00 | 0.05 | 0.00 | 1009.6 | ||
| 20260510061735 | -17 | 0.0 | 0.0 | 0.00 | 0.05 | 0.00 | 1009.7 | ||
| 20260510061635 | -17 | 0.0 | 0.0 | 0.00 | 0.05 | 0.00 | 1009.6 | ||
| 20260510061537 | -17 | 0.0 | 0.0 | 0.00 | 0.05 | 0.00 | 1009.6 | ||
| 20260510061433 | -17 | 0.0 | 0.0 | 0.00 | 0.05 | 0.00 | 1009.7 | ||
| 20260510061334 | 24 | 0 | 1.6 | 1.6 | 0.00 | 0.05 | 0.00 | 89 | 1009.6 |
| 20260510061233 | 24 | 0 | 1.6 | 1.6 | 0.00 | 0.05 | 0.00 | 89 | 1009.6 |
| 20260510061134 | 24 | 0 | 1.6 | 1.6 | 0.00 | 0.05 | 0.00 | 89 | 1009.6 |
| 20260510061033 | 24 | 0 | 1.6 | 1.6 | 0.00 | 0.05 | 0.00 | 89 | 1009.6 |
| 20260510060933 | 24 | 0 | 1.6 | 1.6 | 0.00 | 0.05 | 0.00 | 89 | 1009.7 |
| 20260510060832 | 24 | 0 | 1.6 | 1.6 | 0.00 | 0.05 | 0.00 | 89 | 1009.7 |
| 20260510060732 | 24 | 0 | 1.6 | 1.6 | 0.00 | 0.05 | 0.00 | 89 | 1009.7 |
| 20260510060632 | 24 | 0 | 1.6 | 1.6 | 0.00 | 0.05 | 0.00 | 89 | 1009.8 |
| 20260510060532 | 24 | 0 | 1.6 | 1.6 | 0.00 | 0.05 | 0.00 | 89 | 1009.7 |
| 20260510060431 | 24 | 0 | 1.6 | 9.7 | 0.00 | 0.05 | 0.00 | 89 | 1009.8 |
| 20260510060331 | 24 | 0 | 1.6 | 14.5 | 0.00 | 0.05 | 0.00 | 89 | 1009.7 |
| 20260510060232 | 24 | 0 | 6.4 | 14.5 | 0.00 | 0.05 | 0.00 | 89 | 1009.7 |
| 20260510060104 | 24 | 0 | 6.4 | 14.5 | 0.00 | 0.05 | 0.00 | 89 | 1009.7 |
| 20260510060004 | 24 | 0 | 6.4 | 14.5 | 0.00 | 0.05 | 0.00 | 89 | 1009.7 |
| 20260510055903 | 24 | 0 | 6.4 | 14.5 | 0.00 | 0.05 | 0.00 | 89 | 1009.7 |
| 20260510055803 | 24 | 0 | 6.4 | 14.5 | 0.00 | 0.05 | 0.00 | 89 | 1009.7 |
| 20260510055702 | 24 | 0 | 6.4 | 14.5 | 0.00 | 0.05 | 0.00 | 89 | 1009.8 |
| 20260510055603 | 24 | 0 | 6.4 | 14.5 | 0.00 | 0.05 | 0.00 | 89 | 1009.8 |
| 20260510055443 | 24 | 0 | 6.4 | 14.5 | 0.00 | 0.05 | 0.00 | 89 | 1009.8 |
| 20260510055340 | 24 | 0 | 6.4 | 11.3 | 0.00 | 0.05 | 0.00 | 89 | 1009.8 |
| 20260510055239 | 24 | 0 | 4.8 | 8.0 | 0.00 | 0.05 | 0.00 | 89 | 1009.8 |
| 20260510055139 | 24 | 0 | 4.8 | 8.0 | 0.00 | 0.05 | 0.00 | 89 | 1009.8 |
| 20260510055033 | 24 | 0 | 4.8 | 8.0 | 0.00 | 0.05 | 0.00 | 89 | 1009.8 |
| 20260510054934 | 24 | 0 | 3.2 | 6.4 | 0.00 | 0.05 | 0.00 | 89 | 1009.9 |
| 20260510054833 | 24 | 0 | 3.2 | 6.4 | 0.00 | 0.05 | 0.00 | 89 | 1009.9 |
| 20260510054732 | -17 | 0.0 | 0.0 | 0.00 | 0.05 | 0.00 | 1009.9 | ||
| 20260510054632 | -17 | 0.0 | 0.0 | 0.00 | 0.05 | 0.00 | 1010.0 | ||
| 20260510054532 | -17 | 0.0 | 0.0 | 0.00 | 0.05 | 0.00 | 1009.9 | ||
| 20260510054432 | -17 | 0.0 | 0.0 | 0.00 | 0.05 | 0.00 | 1009.9 | ||
| 20260510054333 | -17 | 0.0 | 0.0 | 0.00 | 0.05 | 0.00 | 1009.9 | ||
| 20260510054232 | -17 | 0.0 | 0.0 | 0.00 | 0.05 | 0.00 | 1009.9 | ||
| 20260510054132 | -17 | 0.0 | 0.0 | 0.00 | 0.05 | 0.00 | 1009.9 | ||
| 20260510054032 | -17 | 0.0 | 0.0 | 0.00 | 0.05 | 0.00 | 1009.8 | ||
| 20260510053933 | -17 | 0.0 | 0.0 | 0.00 | 0.05 | 0.00 | 1009.9 | ||
| 20260510053831 | -17 | 0.0 | 0.0 | 0.00 | 0.05 | 0.00 | 1009.8 | ||
| 20260510053732 | -17 | 0.0 | 0.0 | 0.00 | 0.05 | 0.00 | 1009.8 | ||
| 20260510053632 | -17 | 0.0 | 0.0 | 0.00 | 0.05 | 0.00 | 1009.8 | ||
| 20260510053532 | -17 | 0.0 | 0.0 | 0.00 | 0.05 | 0.00 | 1009.8 | ||
| 20260510053431 | -17 | 0.0 | 0.0 | 0.00 | 0.05 | 0.00 | 1009.9 | ||
| 20260510053333 | -17 | 0.0 | 0.0 | 0.00 | 0.05 | 0.00 | 1009.9 | ||
| 20260510053232 | -17 | 0.0 | 0.0 | 0.00 | 0.05 | 0.00 | 1009.9 | ||
| 20260510053132 | -17 | 0.0 | 0.0 | 0.00 | 0.05 | 0.00 | 1009.9 | ||
| 20260510053032 | -17 | 0.0 | 0.0 | 0.00 | 0.05 | 0.00 | 1009.9 | ||
| 20260510052933 | -17 | 0.0 | 0.0 | 0.00 | 0.05 | 0.00 | 1010.0 | ||
| 20260510052832 | -17 | 0.0 | 0.0 | 0.00 | 0.05 | 0.00 | 1010.0 | ||
| 20260510052733 | -17 | 0.0 | 0.0 | 0.00 | 0.05 | 0.00 | 1009.9 | ||
| 20260510052633 | -17 | 0.0 | 0.0 | 0.00 | 0.05 | 0.00 | 1010.0 | ||
| 20260510052533 | -17 | 0.0 | 0.0 | 0.00 | 0.05 | 0.00 | 1009.9 | ||
| 20260510052433 | -17 | 0.0 | 0.0 | 0.00 | 0.05 | 0.00 | 1010.0 | ||
| 20260510052332 | -17 | 0.0 | 0.0 | 0.00 | 0.05 | 0.00 | 1010.0 | ||
| 20260510052219 | -17 | 0.0 | 0.0 | 0.00 | 0.05 | 0.00 | 1010.0 | ||
| 20260510052119 | -17 | 0.0 | 0.0 | 0.00 | 0.05 | 0.00 | 1010.1 | ||
| 20260510052017 | -17 | 0.0 | 0.0 | 0.00 | 0.05 | 0.00 | 1010.1 | ||
| 20260510051917 | -17 | 0.0 | 0.0 | 0.00 | 0.05 | 0.00 | 1010.1 | ||
| 20260510051817 | -17 | 0.0 | 0.0 | 0.00 | 0.05 | 0.00 | 1010.0 | ||
| 20260510051717 | -17 | 0.0 | 0.0 | 0.00 | 0.05 | 0.00 | 1010.1 | ||
| 20260510051617 | -17 | 0.0 | 0.0 | 0.00 | 0.05 | 0.00 | 1010.1 | ||
| 20260510051516 | -17 | 0.0 | 0.0 | 0.00 | 0.05 | 0.00 | 1010.1 | ||
| 20260510051415 | 25 | 0 | 3.2 | 6.4 | 0.00 | 0.05 | 0.00 | 89 | 1010.1 |
| 20260510051317 | 25 | 0 | 3.2 | 6.4 | 0.00 | 0.05 | 0.00 | 89 | 1010.2 |
| 20260510051214 | 25 | 0 | 3.2 | 11.3 | 0.00 | 0.05 | 0.00 | 89 | 1010.2 |
| 20260510051116 | 25 | 0 | 3.2 | 11.3 | 0.00 | 0.05 | 0.00 | 89 | 1010.2 |
| 20260510051013 | 25 | 0 | 3.2 | 11.3 | 0.00 | 0.05 | 0.00 | 89 | 1010.2 |
| 20260510050913 | 25 | 0 | 3.2 | 11.3 | 0.00 | 0.05 | 0.00 | 89 | 1010.2 |
| 20260510050814 | 25 | 0 | 3.2 | 11.3 | 0.00 | 0.05 | 0.00 | 89 | 1010.2 |
| 20260510050713 | 25 | 0 | 3.2 | 11.3 | 0.00 | 0.05 | 0.00 | 89 | 1010.2 |
| 20260510050614 | 25 | 0 | 3.2 | 11.3 | 0.00 | 0.05 | 0.00 | 89 | 1010.2 |
| 20260510050513 | 25 | 0 | 3.2 | 11.3 | 0.00 | 0.05 | 0.00 | 89 | 1010.2 |
| 20260510050413 | 25 | 0 | 4.8 | 11.3 | 0.00 | 0.05 | 0.00 | 89 | 1010.2 |
| 20260510050312 | 25 | 0 | 4.8 | 11.3 | 0.00 | 0.05 | 0.00 | 89 | 1010.1 |
| 20260510050213 | 25 | 0 | 3.2 | 9.7 | 0.00 | 0.05 | 0.00 | 88 | 1010.1 |
| 20260510050114 | 25 | 0 | 4.8 | 9.7 | 0.00 | 0.05 | 0.00 | 88 | 1010.1 |
| 20260510050013 | 25 | 0 | 3.2 | 9.7 | 0.00 | 0.05 | 0.00 | 88 | 1010.0 |
| 20260510045913 | 25 | 0 | 3.2 | 9.7 | 0.00 | 0.05 | 0.05 | 88 | 1010.0 |
| 20260510045813 | -17 | 0 | 0.0 | 0.0 | 0.00 | 0.05 | 0.05 | 1010.1 | |
| 20260510045713 | -17 | 0.0 | 0.0 | 0.00 | 0.05 | 0.05 | 1010.0 | ||
| 20260510045613 | -17 | 0.0 | 0.0 | 0.00 | 0.05 | 0.05 | 1010.1 | ||
| 20260510045511 | -17 | 0.0 | 0.0 | 0.00 | 0.05 | 0.05 | 1010.1 | ||
| 20260510045411 | -17 | 0.0 | 0.0 | 0.00 | 0.05 | 0.05 | 1010.1 | ||
| 20260510045311 | -17 | 0.0 | 0.0 | 0.00 | 0.05 | 0.05 | 1010.1 | ||
| 20260510045211 | -17 | 0.0 | 0.0 | 0.00 | 0.05 | 0.05 | 1010.2 | ||
| 20260510045111 | -17 | 0.0 | 0.0 | 0.00 | 0.05 | 0.05 | 1010.1 | ||
| 20260510045010 | -17 | 0.0 | 0.0 | 0.00 | 0.05 | 0.05 | 1010.1 | ||
| 20260510044909 | 25 | 0 | 6.4 | 4.8 | 0.00 | 0.05 | 0.05 | 87 | 1010.2 |
| 20260510044810 | 25 | 0 | 6.4 | 9.7 | 0.00 | 0.05 | 0.05 | 87 | 1010.1 |
| 20260510044709 | 25 | 0 | 6.4 | 14.5 | 0.00 | 0.05 | 0.05 | 87 | 1010.3 |
| 20260510044610 | 25 | 0 | 6.4 | 14.5 | 0.00 | 0.05 | 0.05 | 87 | 1010.2 |
| 20260510044506 | 25 | 0 | 6.4 | 14.5 | 0.00 | 0.05 | 0.05 | 87 | 1010.2 |
| 20260510044406 | 25 | 0 | 6.4 | 14.5 | 0.00 | 0.05 | 0.05 | 87 | 1010.2 |
| 20260510044306 | 25 | 0 | 6.4 | 14.5 | 0.00 | 0.05 | 0.05 | 87 | 1010.3 |
| 20260510044206 | 25 | 0 | 6.4 | 14.5 | 0.00 | 0.05 | 0.05 | 87 | 1010.2 |
| 20260510044106 | 25 | 0 | 6.4 | 14.5 | 0.00 | 0.05 | 0.05 | 87 | 1010.2 |
| 20260510044006 | 25 | 0 | 6.4 | 14.5 | 0.00 | 0.05 | 0.05 | 87 | 1010.3 |
| 20260510043907 | 25 | 0 | 6.4 | 14.5 | 0.00 | 0.05 | 0.05 | 87 | 1010.3 |
| 20260510043806 | 25 | 0 | 6.4 | 14.5 | 0.00 | 0.05 | 0.05 | 87 | 1010.3 |
| 20260510043707 | 25 | 0 | 4.8 | 8.0 | 0.00 | 0.05 | 0.05 | 87 | 1010.4 |
| 20260510043606 | 25 | 0 | 1.6 | 6.4 | 0.00 | 0.05 | 0.05 | 87 | 1010.4 |
| 20260510043506 | 25 | 0 | 3.2 | 9.7 | 0.00 | 0.05 | 0.05 | 87 | 1010.4 |
| 20260510043405 | 25 | 0 | 3.2 | 9.7 | 0.00 | 0.05 | 0.05 | 87 | 1010.4 |
| 20260510043305 | 25 | 0 | 3.2 | 9.7 | 0.00 | 0.05 | 0.05 | 87 | 1010.4 |
| 20260510043207 | 25 | 0 | 3.2 | 9.7 | 0.00 | 0.05 | 0.05 | 87 | 1010.3 |
| 20260510043105 | 25 | 0 | 4.8 | 9.7 | 0.00 | 0.05 | 0.05 | 87 | 1010.4 |
| 20260510043006 | 25 | 0 | 4.8 | 9.7 | 0.00 | 0.05 | 0.05 | 87 | 1010.3 |
| 20260510042905 | 25 | 0 | 4.8 | 9.7 | 0.00 | 0.05 | 0.05 | 87 | 1010.4 |
| 20260510042806 | 25 | 0 | 4.8 | 9.7 | 0.00 | 0.05 | 0.05 | 87 | 1010.4 |
| 20260510042708 | 25 | 0 | 4.8 | 9.7 | 0.00 | 0.05 | 0.05 | 87 | 1010.4 |
| 20260510042606 | 25 | 0 | 4.8 | 9.7 | 0.00 | 0.05 | 0.05 | 87 | 1010.4 |
| 20260510042508 | 25 | 0 | 4.8 | 6.4 | 0.00 | 0.05 | 0.05 | 86 | 1010.5 |
| 20260510042405 | 25 | 0 | 3.2 | 6.4 | 0.00 | 0.05 | 0.05 | 86 | 1010.4 |
| 20260510042307 | 25 | 0 | 1.6 | 3.2 | 0.00 | 0.05 | 0.05 | 86 | 1010.4 |
| 20260510042206 | 25 | 0 | 3.2 | 8.0 | 0.00 | 0.05 | 0.05 | 86 | 1010.5 |
| 20260510042106 | 25 | 0 | 3.2 | 8.0 | 0.00 | 0.05 | 0.05 | 86 | 1010.5 |
| 20260510042006 | 25 | 0 | 4.8 | 8.0 | 0.00 | 0.05 | 0.05 | 86 | 1010.5 |
| 20260510041905 | 25 | 0 | 4.8 | 11.3 | 0.00 | 0.05 | 0.05 | 86 | 1010.5 |
| 20260510041804 | 25 | 0 | 4.8 | 11.3 | 0.00 | 0.05 | 0.05 | 86 | 1010.6 |
| 20260510041704 | 25 | 0 | 4.8 | 11.3 | 0.00 | 0.05 | 0.05 | 86 | 1010.5 |
| 20260510041604 | 25 | 0 | 4.8 | 11.3 | 0.00 | 0.05 | 0.05 | 86 | 1010.6 |
| 20260510041504 | 25 | 0 | 4.8 | 11.3 | 0.00 | 0.05 | 0.05 | 86 | 1010.6 |
| 20260510041403 | 25 | 0 | 4.8 | 11.3 | 0.00 | 0.05 | 0.05 | 86 | 1010.6 |
| 20260510041302 | 25 | 0 | 4.8 | 11.3 | 0.00 | 0.05 | 0.05 | 86 | 1010.5 |
| 20260510041203 | 25 | 0 | 4.8 | 11.3 | 0.00 | 0.05 | 0.05 | 86 | 1010.5 |
| 20260510041103 | 25 | 0 | 8.0 | 11.3 | 0.00 | 0.05 | 0.05 | 86 | 1010.6 |
| 20260510041004 | 25 | 0 | 6.4 | 11.3 | 0.00 | 0.05 | 0.05 | 86 | 1010.5 |
| 20260510040903 | 25 | 0 | 4.8 | 11.3 | 0.00 | 0.05 | 0.05 | 85 | 1010.4 |
| 20260510040803 | 25 | 0 | 6.4 | 11.3 | 0.00 | 0.05 | 0.05 | 85 | 1010.4 |
| 20260510040703 | 25 | 0 | 4.8 | 6.4 | 0.00 | 0.05 | 0.05 | 85 | 1010.4 |
| 20260510040602 | 25 | 0 | 4.8 | 9.7 | 0.00 | 0.05 | 0.05 | 85 | 1010.4 |
| 20260510040503 | 25 | 0 | 4.8 | 9.7 | 0.00 | 0.05 | 0.05 | 84 | 1010.3 |
| 20260510040404 | 25 | 0 | 4.8 | 9.7 | 0.00 | 0.05 | 0.05 | 84 | 1010.3 |
| 20260510040303 | 25 | 0 | 4.8 | 9.7 | 0.00 | 0.05 | 0.05 | 84 | 1010.4 |
| 20260510040203 | 25 | 0 | 4.8 | 9.7 | 0.00 | 0.05 | 0.05 | 84 | 1010.4 |
| 20260510040003 | 25 | 0 | 4.8 | 9.7 | 0.00 | 0.05 | 0.05 | 84 | 1010.3 |
| 20260510035832 | 25 | 0 | 4.8 | 9.7 | 0.00 | 0.05 | 0.05 | 84 | 1010.2 |
| 20260510035722 | 25 | 0 | 4.8 | 9.7 | 0.00 | 0.05 | 0.05 | 84 | 1010.2 |
| 20260510035623 | 25 | 0 | 4.8 | 9.7 | 0.00 | 0.05 | 0.05 | 84 | 1010.2 |
| 20260510035522 | 25 | 0 | 4.8 | 9.7 | 0.00 | 0.05 | 0.05 | 84 | 1010.1 |
| 20260510035418 | 25 | 0 | 4.8 | 9.7 | 0.00 | 0.05 | 0.05 | 84 | 1010.1 |
| 20260510035318 | 25 | 0 | 3.2 | 8.0 | 0.00 | 0.05 | 0.05 | 84 | 1010.1 |
| 20260510035207 | 25 | 0 | 3.2 | 8.0 | 0.00 | 0.05 | 0.05 | 85 | 1010.0 |
| 20260510035104 | 25 | 0 | 3.2 | 8.0 | 0.00 | 0.05 | 0.05 | 87 | 1010.0 |
| 20260510035003 | -17 | 0.0 | 0.0 | 0.00 | 0.05 | 0.05 | 1010.1 | ||
| 20260510034904 | -17 | 0.0 | 0.0 | 0.00 | 0.05 | 0.05 | 1010.1 | ||
| 20260510034800 | -17 | 0.0 | 0.0 | 0.00 | 0.05 | 0.05 | 1010.1 | ||
| 20260510034701 | 25 | 0 | 1.6 | 1.6 | 0.00 | 0.05 | 0.05 | 87 | 1010.1 |
| 20260510034600 | 25 | 0 | 1.6 | 4.8 | 0.00 | 0.05 | 0.05 | 87 | 1010.2 |
| 20260510034501 | 25 | 0 | 1.6 | 8.0 | 0.00 | 0.05 | 0.05 | 87 | 1010.2 |
| 20260510034401 | 25 | 0 | 1.6 | 9.7 | 0.00 | 0.05 | 0.05 | 87 | 1010.2 |
| 20260510034259 | 25 | 0 | 1.6 | 9.7 | 0.00 | 0.05 | 0.05 | 87 | 1010.3 |
| 20260510034200 | 25 | 0 | 1.6 | 11.3 | 0.00 | 0.05 | 0.05 | 87 | 1010.2 |
| 20260510034059 | 25 | 0 | 1.6 | 11.3 | 0.00 | 0.05 | 0.05 | 87 | 1010.3 |
| 20260510034000 | 25 | 0 | 1.6 | 11.3 | 0.00 | 0.05 | 0.05 | 87 | 1010.3 |
| 20260510033859 | 25 | 0 | 1.6 | 11.3 | 0.00 | 0.05 | 0.05 | 87 | 1010.3 |
| 20260510033800 | 25 | 0 | 1.6 | 11.3 | 0.00 | 0.05 | 0.05 | 87 | 1010.3 |
| 20260510033659 | 25 | 0 | 3.2 | 11.3 | 0.00 | 0.05 | 0.05 | 87 | 1010.3 |
| 20260510033559 | 25 | 0 | 6.4 | 11.3 | 0.00 | 0.05 | 0.05 | 87 | 1010.4 |
| 20260510033457 | 25 | 0 | 6.4 | 11.3 | 0.00 | 0.05 | 0.05 | 87 | 1010.5 |
| 20260510033359 | 25 | 0 | 8.0 | 11.3 | 0.00 | 0.05 | 0.05 | 87 | 1010.5 |
| 20260510033259 | 25 | 0 | 8.0 | 11.3 | 0.00 | 0.05 | 0.05 | 87 | 1010.5 |
| 20260510033200 | 25 | 0 | 8.0 | 9.7 | 0.00 | 0.05 | 0.05 | 87 | 1010.6 |
| 20260510033059 | -17 | 0 | 8.0 | 9.7 | 0.00 | 0.05 | 0.05 | 1010.5 | |
| 20260510032959 | -17 | 0.0 | 0.0 | 0.00 | 0.05 | 0.05 | 1010.5 | ||
| 20260510032858 | -17 | 0.0 | 0.0 | 0.00 | 0.05 | 0.05 | 1010.5 | ||
| 20260510032758 | -17 | 0.0 | 0.0 | 0.00 | 0.05 | 0.05 | 1010.5 | ||
| 20260510032657 | 25 | 0 | 11.3 | 11.3 | 0.00 | 0.05 | 0.05 | 87 | 1010.5 |
| 20260510032557 | 25 | 0 | 11.3 | 16.1 | 0.00 | 0.05 | 0.05 | 87 | 1010.5 |
| 20260510032457 | 25 | 0 | 11.3 | 17.7 | 0.00 | 0.05 | 0.05 | 87 | 1010.5 |
| 20260510032357 | 25 | 0 | 11.3 | 17.7 | 0.00 | 0.05 | 0.05 | 87 | 1010.5 |
| 20260510032255 | 25 | 0 | 11.3 | 17.7 | 0.00 | 0.05 | 0.05 | 87 | 1010.5 |
| 20260510032155 | 25 | 0 | 11.3 | 17.7 | 0.00 | 0.05 | 0.05 | 87 | 1010.4 |
| 20260510032056 | 25 | 0 | 11.3 | 20.9 | 0.00 | 0.05 | 0.05 | 87 | 1010.4 |
| 20260510031955 | 25 | 0 | 11.3 | 20.9 | 0.00 | 0.05 | 0.05 | 87 | 1010.4 |
| 20260510031855 | 25 | 0 | 11.3 | 20.9 | 0.00 | 0.05 | 0.05 | 87 | 1010.5 |
| 20260510031755 | 25 | 0 | 11.3 | 20.9 | 0.00 | 0.05 | 0.05 | 87 | 1010.5 |
| 20260510031655 | 25 | 0 | 11.3 | 20.9 | 0.00 | 0.05 | 0.05 | 87 | 1010.5 |
| 20260510031554 | 25 | 0 | 11.3 | 20.9 | 0.00 | 0.05 | 0.05 | 87 | 1010.4 |
| 20260510031455 | 25 | 0 | 12.9 | 20.9 | 0.00 | 0.05 | 0.05 | 87 | 1010.4 |
| 20260510031355 | 25 | 0 | 12.9 | 20.9 | 0.00 | 0.05 | 0.05 | 87 | 1010.4 |
| 20260510031256 | 25 | 0 | 12.9 | 20.9 | 0.00 | 0.05 | 0.05 | 87 | 1010.4 |
| 20260510031154 | 25 | 0 | 11.3 | 20.9 | 0.00 | 0.05 | 0.05 | 87 | 1010.3 |
| 20260510031053 | 25 | 0 | 9.7 | 19.3 | 0.00 | 0.05 | 0.05 | 87 | 1010.4 |
| 20260510030955 | 25 | 0 | 6.4 | 19.3 | 0.00 | 0.05 | 0.05 | 87 | 1010.4 |
| 20260510030855 | 25 | 0 | 9.7 | 19.3 | 0.00 | 0.05 | 0.05 | 87 | 1010.3 |
| 20260510030753 | 25 | 0 | 12.9 | 19.3 | 0.00 | 0.05 | 0.05 | 71 | 1010.4 |
| 20260510030655 | 25 | 0 | 12.9 | 19.3 | 0.00 | 0.05 | 0.05 | 71 | 1010.4 |
| 20260510030553 | 25 | 0 | 12.9 | 19.3 | 0.00 | 0.05 | 0.05 | 71 | 1010.4 |
| 20260510030454 | 25 | 0 | 12.9 | 19.3 | 0.00 | 0.05 | 0.05 | 71 | 1010.4 |
| 20260510030353 | 25 | 0 | 12.9 | 19.3 | 0.00 | 0.05 | 0.05 | 71 | 1010.5 |
| 20260510030251 | 25 | 0 | 12.9 | 19.3 | 0.00 | 0.05 | 0.05 | 71 | 1010.5 |
| 20260510030154 | 26 | 0 | 9.7 | 9.7 | 0.00 | 0.05 | 0.05 | 71 | 1010.5 |
| 20260510030053 | 26 | 0 | 9.7 | 9.7 | 0.00 | 0.05 | 0.05 | 71 | 1010.5 |
| 20260510025954 | 26 | 0 | 9.7 | 9.7 | 0.00 | 0.05 | 0.05 | 71 | 1010.4 |
| 20260510025853 | 26 | 0 | 9.7 | 9.7 | 0.00 | 0.05 | 0.05 | 71 | 1010.4 |
| 20260510025752 | 26 | 0 | 9.7 | 9.7 | 0.00 | 0.05 | 0.05 | 71 | 1010.4 |
| 20260510025652 | -17 | 0.0 | 0.0 | 0.00 | 0.05 | 0.05 | 1010.3 | ||
| 20260510025554 | -17 | 0.0 | 0.0 | 0.00 | 0.05 | 0.05 | 1010.3 | ||
| 20260510025453 | -17 | 0.0 | 0.0 | 0.00 | 0.05 | 0.05 | 1010.3 | ||
| 20260510025354 | -17 | 0.0 | 0.0 | 0.00 | 0.05 | 0.05 | 1010.2 | ||
| 20260510025252 | -17 | 0.0 | 0.0 | 0.00 | 0.05 | 0.05 | 1010.2 | ||
| 20260510025151 | -17 | 0.0 | 0.0 | 0.00 | 0.05 | 0.05 | 1010.2 | ||
| 20260510025051 | -17 | 0.0 | 0.0 | 0.00 | 0.05 | 0.05 | 1010.2 | ||
| 20260510024951 | -17 | 0.0 | 0.0 | 0.00 | 0.05 | 0.05 | 1010.2 | ||
| 20260510024851 | -17 | 0.0 | 0.0 | 0.00 | 0.05 | 0.05 | 1010.1 | ||
| 20260510024749 | -17 | 0.0 | 0.0 | 0.00 | 0.05 | 0.05 | 1010.1 | ||
| 20260510024649 | -17 | 0.0 | 0.0 | 0.00 | 0.05 | 0.05 | 1010.1 | ||
| 20260510024549 | -17 | 0.0 | 0.0 | 0.00 | 0.05 | 0.05 | 1010.0 | ||
| 20260510024449 | -17 | 0.0 | 0.0 | 0.00 | 0.05 | 0.05 | 1010.0 | ||
| 20260510024349 | -17 | 0.0 | 0.0 | 0.00 | 0.05 | 0.05 | 1010.0 | ||
| 20260510024248 | -17 | 0.0 | 0.0 | 0.00 | 0.05 | 0.05 | 1009.9 | ||
| 20260510024147 | 27 | 0 | 4.8 | 8.0 | 0.00 | 0.05 | 0.05 | 71 | 1009.9 |
| 20260510024049 | 27 | 0 | 4.8 | 14.5 | 0.00 | 0.05 | 0.05 | 71 | 1009.9 |
| 20260510023948 | 27 | 0 | 4.8 | 14.5 | 0.00 | 0.05 | 0.05 | 71 | 1009.8 |
| 20260510023848 | 27 | 0 | 4.8 | 14.5 | 0.00 | 0.05 | 0.05 | 71 | 1009.8 |
| 20260510023745 | 27 | 0 | 4.8 | 14.5 | 0.00 | 0.05 | 0.05 | 71 | 1009.8 |
| 20260510023646 | 27 | 0 | 4.8 | 14.5 | 0.00 | 0.05 | 0.05 | 71 | 1009.7 |
| 20260510023545 | 27 | 0 | 4.8 | 14.5 | 0.00 | 0.05 | 0.05 | 71 | 1009.7 |
| 20260510023445 | 27 | 0 | 4.8 | 14.5 | 0.00 | 0.05 | 0.05 | 71 | 1009.6 |
| 20260510023346 | 27 | 0 | 4.8 | 14.5 | 0.00 | 0.05 | 0.05 | 71 | 1009.6 |
| 20260510023245 | 27 | 0 | 4.8 | 14.5 | 0.00 | 0.05 | 0.05 | 71 | 1009.6 |
| 20260510023145 | 27 | 0 | 6.4 | 14.5 | 0.00 | 0.05 | 0.05 | 71 | 1009.5 |
| 20260510023045 | 27 | 0 | 6.4 | 11.3 | 0.00 | 0.05 | 0.05 | 71 | 1009.4 |
| 20260510022946 | 27 | 0 | 6.4 | 11.3 | 0.00 | 0.05 | 0.05 | 70 | 1009.4 |
| 20260510022845 | 27 | 0 | 4.8 | 9.7 | 0.00 | 0.05 | 0.05 | 70 | 1009.3 |
| 20260510022745 | 27 | 0 | 4.8 | 9.7 | 0.00 | 0.05 | 0.05 | 70 | 1009.3 |
| 20260510022646 | 27 | 0 | 3.2 | 9.7 | 0.00 | 0.05 | 0.05 | 70 | 1009.4 |
| 20260510022545 | 27 | 0 | 3.2 | 4.8 | 0.00 | 0.05 | 0.05 | 70 | 1009.3 |
| 20260510022445 | 27 | 0 | 1.6 | 6.4 | 0.00 | 0.05 | 0.05 | 68 | 1009.3 |
| 20260510022346 | 27 | 0 | 1.6 | 6.4 | 0.00 | 0.05 | 0.05 | 68 | 1009.2 |
| 20260510022244 | 27 | 0 | 1.6 | 6.4 | 0.00 | 0.05 | 0.05 | 68 | 1009.2 |
| 20260510022144 | 27 | 0 | 1.6 | 8.0 | 0.00 | 0.05 | 0.05 | 68 | 1009.2 |
| 20260510022044 | 27 | 0 | 1.6 | 8.0 | 0.00 | 0.05 | 0.05 | 68 | 1009.2 |
| 20260510021943 | 27 | 0 | 1.6 | 8.0 | 0.00 | 0.05 | 0.05 | 68 | 1009.3 |
| 20260510021844 | 27 | 0 | 1.6 | 8.0 | 0.00 | 0.05 | 0.05 | 68 | 1009.2 |
| 20260510021744 | 27 | 0 | 1.6 | 8.0 | 0.00 | 0.05 | 0.05 | 68 | 1009.3 |
| 20260510021644 | 27 | 0 | 3.2 | 8.0 | 0.00 | 0.05 | 0.05 | 68 | 1009.3 |
| 20260510021543 | 27 | 0 | 3.2 | 8.0 | 0.00 | 0.05 | 0.05 | 67 | 1009.2 |
| 20260510021444 | 27 | 0 | 3.2 | 8.0 | 0.00 | 0.05 | 0.05 | 67 | 1009.2 |
| 20260510021342 | 27 | 0 | 4.8 | 8.0 | 0.00 | 0.05 | 0.05 | 66 | 1009.2 |
| 20260510021243 | 27 | 0 | 4.8 | 8.0 | 0.00 | 0.05 | 0.05 | 66 | 1009.1 |
| 20260510021142 | 27 | 0 | 3.2 | 8.0 | 0.00 | 0.05 | 0.05 | 66 | 1009.1 |
| 20260510021043 | 27 | 0 | 3.2 | 6.4 | 0.00 | 0.05 | 0.05 | 67 | 1009.0 |
| 20260510020943 | 27 | 0 | 4.8 | 6.4 | 0.00 | 0.05 | 0.05 | 67 | 1009.0 |
| 20260510020844 | 27 | 0 | 4.8 | 6.4 | 0.00 | 0.05 | 0.05 | 67 | 1009.0 |
| 20260510020743 | 27 | 0 | 4.8 | 6.4 | 0.00 | 0.05 | 0.05 | 67 | 1008.9 |
| 20260510020641 | 27 | 0 | 4.8 | 6.4 | 0.00 | 0.05 | 0.05 | 67 | 1008.9 |
| 20260510020542 | 27 | 0 | 4.8 | 6.4 | 0.00 | 0.05 | 0.05 | 67 | 1009.0 |
| 20260510020441 | 27 | 0 | 4.8 | 8.0 | 0.00 | 0.05 | 0.05 | 67 | 1008.9 |
| 20260510020342 | 27 | 0 | 4.8 | 8.0 | 0.00 | 0.05 | 0.05 | 67 | 1008.9 |
| 20260510020241 | 27 | 0 | 4.8 | 8.0 | 0.00 | 0.05 | 0.05 | 67 | 1008.9 |
| 20260510020141 | 27 | 0 | 1.6 | 8.0 | 0.00 | 0.05 | 0.05 | 68 | 1008.9 |
| 20260510020042 | 27 | 0 | 4.8 | 8.0 | 0.00 | 0.05 | 0.05 | 68 | 1008.8 |
| 20260510015941 | 27 | 0 | 4.8 | 8.0 | 0.00 | 0.05 | 0.05 | 68 | 1008.8 |
| 20260510015842 | 27 | 0 | 4.8 | 8.0 | 0.00 | 0.05 | 0.05 | 68 | 1008.7 |
| 20260510015741 | 27 | 0 | 4.8 | 8.0 | 0.00 | 0.05 | 0.05 | 68 | 1008.7 |
| 20260510015642 | 27 | 0 | 4.8 | 8.0 | 0.00 | 0.05 | 0.05 | 68 | 1008.6 |
| 20260510015541 | 27 | 0 | 4.8 | 8.0 | 0.00 | 0.05 | 0.05 | 68 | 1008.6 |
| 20260510015440 | -17 | 0 | 4.8 | 4.8 | 0.00 | 0.05 | 0.05 | 1008.5 | |
| 20260510015342 | -17 | 0.0 | 0.0 | 0.00 | 0.05 | 0.05 | 1008.5 | ||
| 20260510015240 | -17 | 0.0 | 0.0 | 0.00 | 0.05 | 0.05 | 1008.5 | ||
| 20260510015139 | 26 | 0 | 3.2 | 6.4 | 0.00 | 0.05 | 0.05 | 75 | 1008.4 |
| 20260510015039 | 26 | 0 | 3.2 | 8.0 | 0.00 | 0.05 | 0.05 | 75 | 1008.4 |
| 20260510014939 | 26 | 0 | 3.2 | 8.0 | 0.00 | 0.05 | 0.05 | 75 | 1008.4 |
| 20260510014839 | 26 | 0 | 3.2 | 8.0 | 0.00 | 0.05 | 0.05 | 75 | 1008.4 |
| 20260510014737 | 26 | 0 | 3.2 | 8.0 | 0.00 | 0.05 | 0.05 | 75 | 1008.4 |
| 20260510014637 | 26 | 0 | 3.2 | 8.0 | 0.00 | 0.05 | 0.05 | 75 | 1008.3 |
| 20260510014538 | 26 | 0 | 3.2 | 8.0 | 0.00 | 0.05 | 0.05 | 75 | 1008.4 |
| 20260510014438 | 26 | 0 | 3.2 | 8.0 | 0.00 | 0.05 | 0.05 | 75 | 1008.3 |
| 20260510014337 | 26 | 0 | 3.2 | 8.0 | 0.00 | 0.05 | 0.05 | 75 | 1008.3 |
| 20260510014238 | 26 | 0 | 3.2 | 8.0 | 0.00 | 0.05 | 0.05 | 75 | 1008.3 |
| 20260510014137 | 26 | 0 | 3.2 | 8.0 | 0.00 | 0.05 | 0.05 | 75 | 1008.3 |
| 20260510014037 | 26 | 0 | 3.2 | 8.0 | 0.00 | 0.05 | 0.05 | 77 | 1008.3 |
| 20260510013938 | 26 | 0 | 4.8 | 8.0 | 0.00 | 0.05 | 0.05 | 78 | 1008.3 |
| 20260510013839 | 26 | 0 | 3.2 | 8.0 | 0.00 | 0.05 | 0.05 | 78 | 1008.2 |
| 20260510013737 | 26 | 0 | 0.0 | 0.0 | 0.00 | 0.05 | 0.05 | 77 | 1008.1 |
| 20260510013637 | 26 | 0 | 0.0 | 0.0 | 0.00 | 0.05 | 0.05 | 77 | 1008.0 |
| 20260510013537 | 26 | 0 | 0.0 | 0.0 | 0.00 | 0.05 | 0.05 | 77 | 1007.9 |
| 20260510013437 | -17 | 0.0 | 0.0 | 0.00 | 0.05 | 0.05 | 1007.9 | ||
| 20260510013338 | -17 | 0.0 | 0.0 | 0.00 | 0.05 | 0.05 | 1007.8 | ||
| 20260510013234 | -17 | 0.0 | 0.0 | 0.00 | 0.05 | 0.05 | 1007.9 | ||
| 20260510013135 | -17 | 0.0 | 0.0 | 0.00 | 0.05 | 0.05 | 1007.9 | ||
| 20260510013034 | -17 | 0.0 | 0.0 | 0.00 | 0.05 | 0.05 | 1007.9 | ||
| 20260510012934 | -17 | 0.0 | 0.0 | 0.00 | 0.05 | 0.05 | 1007.9 | ||
| 20260510012834 | -17 | 0.0 | 0.0 | 0.00 | 0.05 | 0.05 | 1007.9 | ||
| 20260510012732 | -17 | 0.0 | 0.0 | 0.00 | 0.05 | 0.05 | 1007.9 | ||
| 20260510012633 | -17 | 0 | 0.0 | 0.0 | 0.00 | 0.05 | 0.05 | 1007.8 | |
| 20260510012532 | 26 | 0 | 0.0 | 0.0 | 0.00 | 0.05 | 0.05 | 77 | 1007.8 |
| 20260510012433 | 26 | 0 | 0.0 | 0.0 | 0.00 | 0.05 | 0.05 | 77 | 1007.7 |
| 20260510012332 | 26 | 0 | 0.0 | 0.0 | 0.00 | 0.05 | 0.05 | 77 | 1007.6 |
| 20260510012231 | 26 | 0 | 0.0 | 0.0 | 0.00 | 0.05 | 0.05 | 77 | 1007.6 |
| 20260510012132 | 26 | 0 | 0.0 | 0.0 | 0.00 | 0.05 | 0.05 | 77 | 1007.5 |
| 20260510012032 | 26 | 0 | 0.0 | 0.0 | 0.00 | 0.05 | 0.05 | 77 | 1007.6 |
| 20260510011932 | 26 | 0 | 0.0 | 0.0 | 0.00 | 0.05 | 0.05 | 77 | 1007.6 |
| 20260510011832 | 26 | 0 | 0.0 | 0.0 | 0.00 | 0.05 | 0.05 | 77 | 1007.6 |
| 20260510011731 | 26 | 0 | 0.0 | 0.0 | 0.00 | 0.05 | 0.05 | 77 | 1007.6 |
| 20260510011632 | 26 | 0 | 0.0 | 0.0 | 0.00 | 0.05 | 0.05 | 77 | 1007.6 |
| 20260510011531 | 26 | 0 | 0.0 | 0.0 | 0.00 | 0.05 | 0.05 | 78 | 1007.6 |
| 20260510011430 | 26 | 0 | 0.0 | 0.0 | 0.00 | 0.05 | 0.05 | 78 | 1007.5 |
| 20260510011332 | 26 | 0 | 0.0 | 0.0 | 0.00 | 0.05 | 0.05 | 77 | 1007.5 |
| 20260510011231 | 26 | 0 | 0.0 | 0.0 | 0.00 | 0.05 | 0.05 | 77 | 1007.5 |
| 20260510011132 | 26 | 0 | 0.0 | 0.0 | 0.00 | 0.05 | 0.05 | 77 | 1007.5 |
| 20260510011033 | 26 | 0 | 0.0 | 0.0 | 0.00 | 0.05 | 0.05 | 77 | 1007.6 |
| 20260510010931 | 26 | 0 | 0.0 | 0.0 | 0.00 | 0.05 | 0.05 | 78 | 1007.5 |
| 20260510010831 | -17 | 0.0 | 0.0 | 0.00 | 0.05 | 0.05 | 1007.6 | ||
| 20260510010731 | -17 | 0.0 | 0.0 | 0.00 | 0.05 | 0.05 | 1007.6 | ||
| 20260510010630 | -17 | 0.0 | 0.0 | 0.00 | 0.05 | 0.05 | 1007.6 | ||
| 20260510010529 | -17 | 0.0 | 0.0 | 0.00 | 0.05 | 0.05 | 1007.6 | ||
| 20260510010430 | -17 | 0.0 | 0.0 | 0.00 | 0.05 | 0.05 | 1007.5 | ||
| 20260510010329 | -17 | 0.0 | 0.0 | 0.00 | 0.05 | 0.05 | 1007.5 | ||
| 20260510010230 | -17 | 0.0 | 0.0 | 0.00 | 0.05 | 0.05 | 1007.5 | ||
| 20260510010128 | -17 | 0.0 | 0.0 | 0.00 | 0.05 | 0.05 | 1007.4 | ||
| 20260510010028 | -17 | 0.0 | 0.0 | 0.00 | 0.05 | 0.05 | 1007.5 | ||
| 20260510005927 | -17 | 0.0 | 0.0 | 0.00 | 0.05 | 0.00 | 1007.6 | ||
| 20260510005827 | -17 | 0.0 | 0.0 | 0.00 | 0.05 | 0.00 | 1007.5 | ||
| 20260510005728 | -17 | 0.0 | 0.0 | 0.00 | 0.05 | 0.00 | 1007.5 | ||
| 20260510005626 | -17 | 0.0 | 0.0 | 0.00 | 0.05 | 0.00 | 1007.6 | ||
| 20260510005525 | -17 | 0.0 | 0.0 | 0.00 | 0.05 | 0.00 | 1007.5 | ||
| 20260510005425 | -17 | 0.0 | 0.0 | 0.00 | 0.05 | 0.00 | 1007.5 | ||
| 20260510005326 | -17 | 0.0 | 0.0 | 0.00 | 0.05 | 0.00 | 1007.5 | ||
| 20260510005225 | -17 | 0.0 | 0.0 | 0.00 | 0.05 | 0.00 | 1007.4 | ||
| 20260510005124 | -17 | 0.0 | 0.0 | 0.00 | 0.05 | 0.00 | 1007.3 | ||
| 20260510005025 | 26 | 0 | 1.6 | 1.6 | 0.05 | 0.05 | 0.00 | 78 | 1007.2 |
| 20260510004924 | 26 | 0 | 1.6 | 1.6 | 0.05 | 0.05 | 0.00 | 78 | 1007.2 |
| 20260510004825 | 26 | 0 | 1.6 | 1.6 | 0.05 | 0.05 | 0.00 | 78 | 1007.2 |
| 20260510004724 | 26 | 0 | 1.6 | 1.6 | 0.05 | 0.05 | 0.00 | 78 | 1007.1 |
| 20260510004604 | 26 | 0 | 1.6 | 1.6 | 0.05 | 0.05 | 0.00 | 78 | 1007.0 |
| 20260510004503 | 26 | 0 | 1.6 | 1.6 | 0.05 | 0.05 | 0.00 | 78 | 1007.0 |
| 20260510004403 | 26 | 0 | 1.6 | 1.6 | 0.05 | 0.05 | 0.00 | 78 | 1007.0 |
| 20260510004303 | 26 | 0 | 1.6 | 1.6 | 0.05 | 0.05 | 0.00 | 78 | 1006.9 |
| 20260510004203 | 26 | 0 | 1.6 | 1.6 | 0.05 | 0.05 | 0.00 | 78 | 1006.9 |
| 20260510004103 | 26 | 0 | 1.6 | 1.6 | 0.05 | 0.05 | 0.00 | 78 | 1006.8 |
| 20260510004003 | -17 | 0.0 | 0.0 | 0.05 | 0.05 | 0.00 | 1006.8 | ||
| 20260510003903 | -17 | 0.0 | 0.0 | 0.05 | 0.05 | 0.00 | 1006.8 | ||
| 20260510003803 | -17 | 0.0 | 0.0 | 0.05 | 0.05 | 0.00 | 1007.0 | ||
| 20260510003704 | -17 | 0.0 | 0.0 | 0.05 | 0.05 | 0.00 | 1007.1 | ||
| 20260510003603 | -17 | 0.0 | 0.0 | 0.05 | 0.05 | 0.00 | 1007.0 | ||
| 20260510003504 | -17 | 0.0 | 0.0 | 0.05 | 0.05 | 0.00 | 1007.2 | ||
| 20260510003403 | -17 | 0.0 | 0.0 | 0.05 | 0.05 | 0.00 | 1007.2 | ||
| 20260510003304 | -17 | 0.0 | 0.0 | 0.05 | 0.05 | 0.00 | 1007.2 | ||
| 20260510003203 | -17 | 0.0 | 0.0 | 0.05 | 0.05 | 0.00 | 1007.2 | ||
| 20260510003103 | -17 | 0.0 | 0.0 | 0.05 | 0.05 | 0.00 | 1007.3 | ||
| 20260510003003 | -17 | 0.0 | 0.0 | 0.05 | 0.05 | 0.00 | 1007.2 | ||
| 20260510002903 | -17 | 0.0 | 0.0 | 0.05 | 0.05 | 0.00 | 1007.2 | ||
| 20260510002803 | -17 | 0.0 | 0.0 | 0.05 | 0.05 | 0.00 | 1007.3 | ||
| 20260510002703 | -17 | 0.0 | 0.0 | 0.05 | 0.05 | 0.00 | 1007.3 | ||
| 20260510002603 | -17 | 0.0 | 0.0 | 0.05 | 0.05 | 0.00 | 1007.3 | ||
| 20260510002504 | -17 | 0.0 | 0.0 | 0.05 | 0.05 | 0.00 | 1007.4 | ||
| 20260510002403 | -17 | 0.0 | 0.0 | 0.05 | 0.05 | 0.00 | 1007.4 | ||
| 20260510002306 | -17 | 0.0 | 0.0 | 0.05 | 0.05 | 0.00 | 1007.4 | ||
| 20260510002203 | 26 | 0 | 0.0 | 0.0 | 0.05 | 0.05 | 0.00 | 78 | 1007.4 |
| 20260510002103 | 26 | 0 | 0.0 | 0.0 | 0.05 | 0.05 | 0.00 | 78 | 1007.4 |
| 20260510002003 | 26 | 0 | 0.0 | 0.0 | 0.05 | 0.05 | 0.00 | 78 | 1007.4 |
| 20260510001903 | 26 | 0 | 0.0 | 0.0 | 0.05 | 0.05 | 0.00 | 78 | 1007.3 |
| 20260510001803 | 26 | 0 | 0.0 | 0.0 | 0.05 | 0.05 | 0.00 | 78 | 1007.4 |
| 20260510001703 | 26 | 0 | 0.0 | 0.0 | 0.05 | 0.05 | 0.00 | 78 | 1007.3 |
| 20260510001603 | 26 | 0 | 0.0 | 0.0 | 0.05 | 0.05 | 0.00 | 78 | 1007.3 |
| 20260510001504 | 26 | 0 | 0.0 | 0.0 | 0.05 | 0.05 | 0.00 | 78 | 1007.3 |
| 20260510001403 | 26 | 0 | 0.0 | 0.0 | 0.05 | 0.05 | 0.00 | 78 | 1007.2 |
| 20260510001303 | 26 | 0 | 0.0 | 0.0 | 0.05 | 0.05 | 0.00 | 78 | 1007.0 |
| 20260510001202 | 26 | 0 | 0.0 | 0.0 | 0.05 | 0.05 | 0.00 | 78 | 1006.9 |
| 20260510001104 | 26 | 0 | 0.0 | 0.0 | 0.05 | 0.05 | 0.00 | 78 | 1006.9 |
| 20260510001003 | -17 | 0.0 | 0.0 | 0.05 | 0.05 | 0.05 | 1006.9 | ||
| 20260510000904 | -17 | 0.0 | 0.0 | 0.05 | 0.05 | 0.05 | 1006.8 | ||
| 20260510000803 | -17 | 0.0 | 0.0 | 0.05 | 0.05 | 0.05 | 1006.9 | ||
| 20260510000704 | 26 | 0 | 3.2 | 4.8 | 0.05 | 0.05 | 0.05 | 75 | 1006.9 |
| 20260510000603 | 26 | 0 | 3.2 | 4.8 | 0.05 | 0.05 | 0.05 | 75 | 1007.0 |
| 20260510000504 | 26 | 0 | 3.2 | 8.0 | 0.05 | 0.05 | 0.05 | 75 | 1007.0 |
| 20260510000404 | 26 | 0 | 3.2 | 9.7 | 0.05 | 0.05 | 0.05 | 75 | 1007.0 |
| 20260510000304 | 26 | 0 | 3.2 | 9.7 | 0.05 | 0.05 | 0.05 | 75 | 1007.0 |
| 20260510000204 | 26 | 0 | 3.2 | 9.7 | 0.05 | 0.05 | 0.05 | 75 | 1007.1 |
| 20260510000005 | 26 | 0 | 3.2 | 9.7 | 0.05 | 0.05 | 0.05 | 75 | 1007.2 |
| 20260509235903 | 26 | 0 | 3.2 | 9.7 | 0.05 | 0.05 | 0.05 | 75 | 1007.1 |
| 20260509235804 | 26 | 0 | 3.2 | 9.7 | 0.05 | 0.05 | 0.05 | 75 | 1007.2 |
| 20260509235703 | 26 | 0 | 4.8 | 9.7 | 0.05 | 0.05 | 0.05 | 74 | 1007.1 |
| 20260509235603 | 26 | 0 | 6.4 | 9.7 | 0.05 | 0.05 | 0.05 | 74 | 1007.1 |
| 20260509235504 | 26 | 0 | 6.4 | 9.7 | 0.05 | 0.05 | 0.05 | 74 | 1007.1 |
| 20260509235404 | 26 | 0 | 3.2 | 9.7 | 0.05 | 0.05 | 0.05 | 75 | 1007.0 |
| 20260509235306 | 26 | 0 | 3.2 | 9.7 | 0.05 | 0.05 | 0.05 | 75 | 1006.9 |
| 20260509235202 | 26 | 0 | 6.4 | 9.7 | 0.05 | 0.05 | 0.05 | 75 | 1006.9 |
| 20260509235104 | 26 | 0 | 6.4 | 8.0 | 0.00 | 0.00 | 0.00 | 58 | 1006.9 |
| 20260509235005 | -17 | 0.0 | 0.0 | 0.00 | 0.00 | 0.00 | 1006.9 | ||
| 20260509234904 | -17 | 0.0 | 0.0 | 0.00 | 0.00 | 0.00 | 1006.7 | ||
| 20260509234804 | -17 | 0.0 | 0.0 | 0.00 | 0.00 | 0.00 | 1006.8 | ||
| 20260509234703 | -17 | 0.0 | 0.0 | 0.00 | 0.00 | 0.00 | 1006.8 | ||
| 20260509234602 | -17 | 0.0 | 0.0 | 0.00 | 0.00 | 0.00 | 1006.8 | ||
| 20260509234504 | -17 | 0.0 | 0.0 | 0.00 | 0.00 | 0.00 | 1006.8 | ||
| 20260509234403 | -17 | 0.0 | 0.0 | 0.00 | 0.00 | 0.00 | 1006.7 | ||
| 20260509234303 | -17 | 0.0 | 0.0 | 0.00 | 0.00 | 0.00 | 1006.6 | ||
| 20260509234203 | -17 | 0.0 | 0.0 | 0.00 | 0.00 | 0.00 | 1006.5 | ||
| 20260509234104 | -17 | 0.0 | 0.0 | 0.00 | 0.00 | 0.00 | 1006.5 | ||
| 20260509234004 | -17 | 0.0 | 0.0 | 0.00 | 0.00 | 0.00 | 1006.5 | ||
| 20260509233903 | -17 | 0.0 | 0.0 | 0.00 | 0.00 | 0.00 | 1006.4 | ||
| 20260509233803 | -17 | 0.0 | 0.0 | 0.00 | 0.00 | 0.00 | 1006.4 | ||
| 20260509233703 | -17 | 0.0 | 0.0 | 0.00 | 0.00 | 0.00 | 1006.4 | ||
| 20260509233602 | -17 | 0.0 | 0.0 | 0.00 | 0.00 | 0.00 | 1006.5 | ||
| 20260509233504 | -17 | 0.0 | 0.0 | 0.00 | 0.00 | 0.00 | 1006.6 | ||
| 20260509233402 | -17 | 0.0 | 0.0 | 0.00 | 0.00 | 0.00 | 1006.5 | ||
| 20260509233302 | -17 | 0.0 | 0.0 | 0.00 | 0.00 | 0.00 | 1006.6 | ||
| 20260509233201 | -17 | 0.0 | 0.0 | 0.00 | 0.00 | 0.00 | 1006.7 | ||
| 20260509233102 | -17 | 0.0 | 0.0 | 0.00 | 0.00 | 0.00 | 1006.8 | ||
| 20260509233001 | -17 | 0.0 | 0.0 | 0.00 | 0.00 | 0.00 | 1006.8 | ||
| 20260509232902 | -17 | 0.0 | 0.0 | 0.00 | 0.00 | 0.00 | 1006.8 | ||
| 20260509232800 | -17 | 0.0 | 0.0 | 0.00 | 0.00 | 0.00 | 1006.9 | ||
| 20260509232659 | -17 | 0.0 | 0.0 | 0.00 | 0.00 | 0.00 | 1006.9 | ||
| 20260509232600 | -17 | 0.0 | 0.0 | 0.00 | 0.00 | 0.00 | 1006.8 | ||
| 20260509232459 | -17 | 0.0 | 0.0 | 0.00 | 0.00 | 0.00 | 1006.9 | ||
| 20260509232332 | -17 | 0.0 | 0.0 | 0.00 | 0.00 | 0.00 | 1006.7 | ||
| 20260509232232 | -17 | 0.0 | 0.0 | 0.00 | 0.00 | 0.00 | 1006.6 | ||
| 20260509232132 | -17 | 0.0 | 0.0 | 0.00 | 0.00 | 0.00 | 1006.8 | ||
| 20260509232033 | -17 | 0.0 | 0.0 | 0.00 | 0.00 | 0.00 | 1006.7 | ||
| 20260509231932 | -17 | 0.0 | 0.0 | 0.00 | 0.00 | 0.00 | 1006.7 | ||
| 20260509231832 | -17 | 0.0 | 0.0 | 0.00 | 0.00 | 0.00 | 1006.6 | ||
| 20260509231732 | -17 | 0.0 | 0.0 | 0.00 | 0.00 | 0.00 | 1006.7 | ||
| 20260509231632 | 31 | 244 | 1.6 | 3.2 | 0.00 | 0.00 | 0.00 | 59 | 1006.6 |
| 20260509231532 | 31 | 244 | 1.6 | 4.8 | 0.00 | 0.00 | 0.00 | 59 | 1006.6 |
| 20260509231432 | 31 | 244 | 1.6 | 4.8 | 0.00 | 0.00 | 0.00 | 59 | 1006.6 |
| 20260509231332 | 31 | 244 | 1.6 | 4.8 | 0.00 | 0.00 | 0.00 | 59 | 1006.6 |
| 20260509231232 | 31 | 244 | 1.6 | 4.8 | 0.00 | 0.00 | 0.00 | 59 | 1006.6 |
| 20260509231133 | 31 | 244 | 1.6 | 8.0 | 0.00 | 0.00 | 0.00 | 59 | 1006.6 |
| 20260509231033 | 31 | 244 | 1.6 | 8.0 | 0.00 | 0.00 | 0.00 | 59 | 1006.7 |
| 20260509230932 | 31 | 244 | 1.6 | 8.0 | 0.00 | 0.00 | 0.00 | 59 | 1006.6 |
| 20260509230832 | 31 | 244 | 1.6 | 8.0 | 0.00 | 0.00 | 0.00 | 59 | 1006.6 |
| 20260509230732 | 31 | 244 | 1.6 | 8.0 | 0.00 | 0.00 | 0.00 | 59 | 1006.5 |
| 20260509230618 | 31 | 244 | 0.0 | 8.0 | 0.00 | 0.00 | 0.00 | 59 | 1006.5 |
| 20260509230517 | 31 | 244 | 0.0 | 8.0 | 0.00 | 0.00 | 0.00 | 59 | 1006.6 |
| 20260509230410 | 31 | 244 | 3.2 | 8.0 | 0.00 | 0.00 | 0.00 | 59 | 1006.5 |
| 20260509230305 | 31 | 244 | 6.4 | 8.0 | 0.00 | 0.00 | 0.00 | 60 | 1006.5 |
| 20260509230203 | 31 | 244 | 4.8 | 8.0 | 0.00 | 0.00 | 0.00 | 60 | 1006.5 |
| 20260509230104 | 31 | 248 | 0.0 | 4.8 | 0.00 | 0.00 | 0.00 | 59 | 1006.5 |
| 20260509230003 | 31 | 250 | 3.2 | 4.8 | 0.00 | 0.00 | 0.00 | 59 | 1006.4 |
| 20260509225903 | 31 | 250 | 3.2 | 4.8 | 0.00 | 0.00 | 0.00 | 59 | 1006.4 |
| 20260509225803 | 31 | 250 | 3.2 | 4.8 | 0.00 | 0.00 | 0.00 | 59 | 1006.4 |
| 20260509225704 | 31 | 250 | 3.2 | 4.8 | 0.00 | 0.00 | 0.00 | 59 | 1006.4 |
| 20260509225603 | 31 | 250 | 3.2 | 4.8 | 0.00 | 0.00 | 0.00 | 59 | 1006.3 |
| 20260509225503 | 31 | 250 | 3.2 | 4.8 | 0.00 | 0.00 | 0.00 | 59 | 1006.3 |
| 20260509225403 | 31 | 250 | 3.2 | 4.8 | 0.00 | 0.00 | 0.00 | 59 | 1006.3 |
| 20260509225306 | 31 | 250 | 3.2 | 4.8 | 0.00 | 0.00 | 0.00 | 59 | 1006.3 |
| 20260509225153 | 31 | 250 | 0.0 | 3.2 | 0.00 | 0.00 | 0.00 | 59 | 1006.3 |
| 20260509225054 | 31 | 250 | 0.0 | 1.6 | 0.00 | 0.00 | 0.00 | 60 | 1006.3 |
| 20260509224952 | 31 | 250 | 0.0 | 1.6 | 0.00 | 0.00 | 0.00 | 60 | 1006.3 |
| 20260509224851 | 31 | 250 | 0.0 | 1.6 | 0.00 | 0.00 | 0.00 | 61 | 1006.3 |
| 20260509224752 | 31 | 250 | 0.0 | 1.6 | 0.00 | 0.00 | 0.00 | 62 | 1006.3 |
| 20260509224639 | 31 | 250 | 0.0 | 1.6 | 0.00 | 0.00 | 0.00 | 60 | 1006.3 |
| 20260509224537 | 31 | 250 | 0.0 | 1.6 | 0.00 | 0.00 | 0.00 | 58 | 1006.3 |
| 20260509224433 | -17 | 0.0 | 0.0 | 0.00 | 0.00 | 0.00 | 1006.3 | ||
| 20260509224332 | -17 | 0.0 | 0.0 | 0.00 | 0.00 | 0.00 | 1006.2 | ||
| 20260509224232 | 32 | 250 | 0.0 | 0.0 | 0.00 | 0.00 | 0.00 | 57 | 1006.3 |
| 20260509224132 | 32 | 250 | 0.0 | 0.0 | 0.00 | 0.00 | 0.00 | 57 | 1006.2 |
| 20260509224032 | 32 | 250 | 0.0 | 0.0 | 0.00 | 0.00 | 0.00 | 57 | 1006.3 |
| 20260509223932 | 32 | 250 | 0.0 | 0.0 | 0.00 | 0.00 | 0.00 | 57 | 1006.3 |
| 20260509223833 | 32 | 250 | 0.0 | 4.8 | 0.00 | 0.00 | 0.00 | 57 | 1006.2 |
| 20260509223733 | 32 | 250 | 0.0 | 4.8 | 0.00 | 0.00 | 0.00 | 57 | 1006.3 |
| 20260509223632 | 32 | 250 | 0.0 | 4.8 | 0.00 | 0.00 | 0.00 | 57 | 1006.3 |
| 20260509223533 | 32 | 250 | 0.0 | 4.8 | 0.00 | 0.00 | 0.00 | 57 | 1006.3 |
| 20260509223432 | 32 | 250 | 0.0 | 4.8 | 0.00 | 0.00 | 0.00 | 57 | 1006.3 |
| 20260509223332 | 32 | 250 | 0.0 | 4.8 | 0.00 | 0.00 | 0.00 | 57 | 1006.3 |
| 20260509223231 | 32 | 250 | 0.0 | 4.8 | 0.00 | 0.00 | 0.00 | 57 | 1006.3 |
| 20260509223132 | 32 | 250 | 1.6 | 4.8 | 0.00 | 0.00 | 0.00 | 57 | 1006.2 |
| 20260509223032 | 32 | 250 | 1.6 | 4.8 | 0.00 | 0.00 | 0.00 | 57 | 1006.3 |
| 20260509222931 | 32 | 250 | 3.2 | 4.8 | 0.00 | 0.00 | 0.00 | 57 | 1006.2 |
| 20260509222832 | 32 | 250 | 4.8 | 4.8 | 0.00 | 0.00 | 0.00 | 57 | 1006.2 |
| 20260509222733 | -17 | 0.0 | 0.0 | 0.00 | 0.00 | 0.00 | 1006.2 | ||
| 20260509222633 | 32 | 250 | 4.8 | 4.8 | 0.00 | 0.00 | 0.00 | 57 | 1006.2 |
| 20260509222505 | 32 | 250 | 4.8 | 8.0 | 0.00 | 0.00 | 0.00 | 57 | 1006.2 |
| 20260509222404 | 32 | 250 | 4.8 | 8.0 | 0.00 | 0.00 | 0.00 | 57 | 1006.2 |
| 20260509222306 | 32 | 250 | 4.8 | 8.0 | 0.00 | 0.00 | 0.00 | 57 | 1006.1 |
| 20260509222203 | 32 | 250 | 4.8 | 8.0 | 0.00 | 0.00 | 0.00 | 57 | 1006.2 |
| 20260509222103 | 32 | 250 | 4.8 | 8.0 | 0.00 | 0.00 | 0.00 | 57 | 1006.2 |
| 20260509222003 | 32 | 250 | 4.8 | 8.0 | 0.00 | 0.00 | 0.00 | 57 | 1006.2 |
| 20260509221903 | 32 | 250 | 4.8 | 8.0 | 0.00 | 0.00 | 0.00 | 57 | 1006.2 |
| 20260509221803 | 32 | 250 | 4.8 | 8.0 | 0.00 | 0.00 | 0.00 | 57 | 1006.2 |
| 20260509221703 | 32 | 250 | 6.4 | 8.0 | 0.00 | 0.00 | 0.00 | 57 | 1006.2 |
| 20260509221602 | 32 | 250 | 6.4 | 8.0 | 0.00 | 0.00 | 0.00 | 56 | 1006.2 |
| 20260509221504 | 32 | 248 | 3.2 | 8.0 | 0.00 | 0.00 | 0.00 | 57 | 1006.2 |
| 20260509221402 | 32 | 248 | 0.0 | 8.0 | 0.00 | 0.00 | 0.00 | 57 | 1006.2 |
| 20260509221304 | 32 | 248 | 0.0 | 8.0 | 0.00 | 0.00 | 0.00 | 56 | 1006.1 |
| 20260509221203 | 32 | 248 | 3.2 | 8.0 | 0.00 | 0.00 | 0.00 | 56 | 1006.2 |
| 20260509221102 | 32 | 248 | 6.4 | 8.0 | 0.00 | 0.00 | 0.00 | 57 | 1006.2 |
| 20260509221004 | 32 | 248 | 4.8 | 8.0 | 0.00 | 0.00 | 0.00 | 57 | 1006.2 |
| 20260509220903 | 32 | 248 | 3.2 | 4.8 | 0.00 | 0.00 | 0.00 | 58 | 1006.2 |
| 20260509220805 | 32 | 248 | 3.2 | 4.8 | 0.00 | 0.00 | 0.00 | 56 | 1006.1 |
| 20260509220703 | 32 | 248 | 3.2 | 4.8 | 0.00 | 0.00 | 0.00 | 56 | 1006.2 |
| 20260509220603 | 32 | 248 | 3.2 | 4.8 | 0.00 | 0.00 | 0.00 | 56 | 1006.2 |
| 20260509220504 | 32 | 248 | 3.2 | 4.8 | 0.00 | 0.00 | 0.00 | 56 | 1006.2 |
| 20260509220404 | 32 | 248 | 3.2 | 4.8 | 0.00 | 0.00 | 0.00 | 56 | 1006.2 |
| 20260509220303 | 32 | 248 | 3.2 | 4.8 | 0.00 | 0.00 | 0.00 | 56 | 1006.1 |
| 20260509220204 | 32 | 248 | 4.8 | 4.8 | 0.00 | 0.00 | 0.00 | 56 | 1006.2 |
| 20260509220103 | 32 | 248 | 0.0 | 4.8 | 0.00 | 0.00 | 0.00 | 62 | 1006.2 |
| 20260509220004 | 32 | 248 | 0.0 | 4.8 | 0.00 | 0.00 | 0.00 | 62 | 1006.2 |
| 20260509215903 | 32 | 248 | 0.0 | 4.8 | 0.00 | 0.00 | 0.00 | 62 | 1006.2 |
| 20260509215804 | 32 | 248 | 0.0 | 4.8 | 0.00 | 0.00 | 0.00 | 62 | 1006.2 |
| 20260509215703 | 32 | 248 | 0.0 | 4.8 | 0.00 | 0.00 | 0.00 | 62 | 1006.2 |
| 20260509215604 | 32 | 248 | 0.0 | 4.8 | 0.00 | 0.00 | 0.00 | 62 | 1006.2 |
| 20260509215502 | 32 | 248 | 0.0 | 4.8 | 0.00 | 0.00 | 0.00 | 59 | 1006.2 |
| 20260509215403 | 32 | 248 | 3.2 | 4.8 | 0.00 | 0.00 | 0.00 | 59 | 1006.2 |
| 20260509215306 | 32 | 248 | 3.2 | 4.8 | 0.00 | 0.00 | 0.00 | 59 | 1006.1 |
| 20260509215203 | 32 | 248 | 3.2 | 4.8 | 0.00 | 0.00 | 0.00 | 59 | 1006.2 |
| 20260509215103 | 32 | 248 | 3.2 | 4.8 | 0.00 | 0.00 | 0.00 | 59 | 1006.2 |
| 20260509215004 | 32 | 248 | 3.2 | 4.8 | 0.00 | 0.00 | 0.00 | 59 | 1006.2 |
| 20260509214903 | 32 | 248 | 3.2 | 4.8 | 0.00 | 0.00 | 0.00 | 59 | 1006.2 |
| 20260509214803 | 32 | 248 | 3.2 | 4.8 | 0.00 | 0.00 | 0.00 | 59 | 1006.2 |
| 20260509214702 | 32 | 248 | 3.2 | 4.8 | 0.00 | 0.00 | 0.00 | 60 | 1006.2 |
| 20260509214603 | 32 | 248 | 1.6 | 3.2 | 0.00 | 0.00 | 0.00 | 60 | 1006.2 |
| 20260509214504 | 32 | 248 | 1.6 | 3.2 | 0.00 | 0.00 | 0.00 | 60 | 1006.2 |
| 20260509214404 | 32 | 248 | 1.6 | 3.2 | 0.00 | 0.00 | 0.00 | 60 | 1006.2 |
| 20260509214303 | 32 | 248 | 1.6 | 3.2 | 0.00 | 0.00 | 0.00 | 60 | 1006.2 |
| 20260509214203 | 32 | 248 | 1.6 | 3.2 | 0.00 | 0.00 | 0.00 | 60 | 1006.3 |
| 20260509214103 | 32 | 248 | 1.6 | 3.2 | 0.00 | 0.00 | 0.00 | 60 | 1006.2 |
| 20260509214005 | 32 | 248 | 1.6 | 3.2 | 0.00 | 0.00 | 0.00 | 61 | 1006.2 |
| 20260509213903 | -17 | 0.0 | 0.0 | 0.00 | 0.00 | 0.00 | 1006.2 | ||
| 20260509213804 | -17 | 0.0 | 0.0 | 0.00 | 0.00 | 0.00 | 1006.2 | ||
| 20260509213703 | -17 | 0.0 | 0.0 | 0.00 | 0.00 | 0.00 | 1006.2 | ||
| 20260509213604 | -17 | 0.0 | 0.0 | 0.00 | 0.00 | 0.00 | 1006.2 | ||
| 20260509213503 | -17 | 0.0 | 0.0 | 0.00 | 0.00 | 0.00 | 1006.2 | ||
| 20260509213404 | -17 | 0.0 | 0.0 | 0.00 | 0.00 | 0.00 | 1006.3 | ||
| 20260509213303 | -17 | 0.0 | 0.0 | 0.00 | 0.00 | 0.00 | 1006.2 | ||
| 20260509213203 | -17 | 0.0 | 0.0 | 0.00 | 0.00 | 0.00 | 1006.2 | ||
| 20260509213103 | -17 | 0.0 | 0.0 | 0.00 | 0.00 | 0.00 | 1006.2 | ||
| 20260509213005 | -17 | 0.0 | 0.0 | 0.00 | 0.00 | 0.00 | 1006.2 | ||
| 20260509212903 | -17 | 0.0 | 0.0 | 0.00 | 0.00 | 0.00 | 1006.2 | ||
| 20260509212804 | -17 | 0.0 | 0.0 | 0.00 | 0.00 | 0.00 | 1006.2 | ||
| 20260509212703 | -17 | 0.0 | 0.0 | 0.00 | 0.00 | 0.00 | 1006.2 | ||
| 20260509212603 | -17 | 0.0 | 0.0 | 0.00 | 0.00 | 0.00 | 1006.2 | ||
| 20260509212504 | -17 | 0.0 | 0.0 | 0.00 | 0.00 | 0.00 | 1006.2 | ||
| 20260509212403 | -17 | 0.0 | 0.0 | 0.00 | 0.00 | 0.00 | 1006.2 | ||
| 20260509212305 | -17 | 0.0 | 0.0 | 0.00 | 0.00 | 0.00 | 1006.2 | ||
| 20260509212202 | -17 | 0.0 | 0.0 | 0.00 | 0.00 | 0.00 | 1006.2 | ||
| 20260509212103 | 32 | 251 | 0.0 | 0.0 | 0.00 | 0.00 | 0.00 | 61 | 1006.2 |
| 20260509212003 | 32 | 251 | 0.0 | 0.0 | 0.00 | 0.00 | 0.00 | 61 | 1006.2 |
| 20260509211903 | 32 | 251 | 0.0 | 0.0 | 0.00 | 0.00 | 0.00 | 61 | 1006.2 |
| 20260509211803 | 32 | 251 | 0.0 | 0.0 | 0.00 | 0.00 | 0.00 | 61 | 1006.2 |
| 20260509211703 | 32 | 251 | 0.0 | 0.0 | 0.00 | 0.00 | 0.00 | 61 | 1006.2 |
| 20260509211602 | 32 | 251 | 0.0 | 0.0 | 0.00 | 0.00 | 0.00 | 61 | 1006.2 |
| 20260509211504 | 32 | 251 | 0.0 | 0.0 | 0.00 | 0.00 | 0.00 | 61 | 1006.2 |
| 20260509211403 | 32 | 251 | 0.0 | 0.0 | 0.00 | 0.00 | 0.00 | 61 | 1006.3 |
| 20260509211303 | 32 | 251 | 0.0 | 0.0 | 0.00 | 0.00 | 0.00 | 61 | 1006.2 |
| 20260509211203 | 32 | 251 | 0.0 | 0.0 | 0.00 | 0.00 | 0.00 | 61 | 1006.3 |
| 20260509211103 | 32 | 251 | 0.0 | 0.0 | 0.00 | 0.00 | 0.00 | 61 | 1006.3 |
| 20260509211004 | 32 | 251 | 0.0 | 0.0 | 0.00 | 0.00 | 0.00 | 61 | 1006.3 |
| 20260509210904 | 32 | 251 | 0.0 | 0.0 | 0.00 | 0.00 | 0.00 | 60 | 1006.3 |
| 20260509210802 | 32 | 251 | 0.0 | 0.0 | 0.00 | 0.00 | 0.00 | 59 | 1006.3 |
| 20260509210703 | 32 | 251 | 0.0 | 1.6 | 0.00 | 0.00 | 0.00 | 59 | 1006.4 |
| 20260509210604 | 32 | 251 | 0.0 | 3.2 | 0.00 | 0.00 | 0.00 | 59 | 1006.3 |
| 20260509210503 | 32 | 251 | 0.0 | 3.2 | 0.00 | 0.00 | 0.00 | 61 | 1006.4 |
| 20260509210403 | 32 | 251 | 1.6 | 3.2 | 0.00 | 0.00 | 0.00 | 61 | 1006.4 |
| 20260509210304 | 32 | 251 | 1.6 | 4.8 | 0.00 | 0.00 | 0.00 | 61 | 1006.4 |
| 20260509210203 | 32 | 251 | 1.6 | 4.8 | 0.00 | 0.00 | 0.00 | 61 | 1006.4 |
| 20260509210003 | 32 | 251 | 1.6 | 4.8 | 0.00 | 0.00 | 0.00 | 61 | 1006.4 |
| 20260509205903 | 32 | 251 | 1.6 | 4.8 | 0.00 | 0.00 | 0.00 | 61 | 1006.4 |
| 20260509205803 | 32 | 251 | 1.6 | 4.8 | 0.00 | 0.00 | 0.00 | 61 | 1006.4 |
| 20260509205705 | 32 | 251 | 1.6 | 4.8 | 0.00 | 0.00 | 0.00 | 61 | 1006.5 |
| 20260509205602 | 32 | 251 | 1.6 | 4.8 | 0.00 | 0.00 | 0.00 | 60 | 1006.5 |
| 20260509205505 | 32 | 251 | 1.6 | 4.8 | 0.00 | 0.00 | 0.00 | 60 | 1006.5 |
| 20260509205402 | 32 | 251 | 3.2 | 4.8 | 0.00 | 0.00 | 0.00 | 60 | 1006.5 |
| 20260509205306 | 32 | 251 | 1.6 | 4.8 | 0.00 | 0.00 | 0.00 | 60 | 1006.6 |
| 20260509205203 | 32 | 251 | 0.0 | 1.6 | 0.00 | 0.00 | 0.00 | 60 | 1006.7 |
| 20260509205102 | 32 | 251 | 0.0 | 0.0 | 0.00 | 0.00 | 0.00 | 60 | 1006.7 |
| 20260509205003 | -17 | 251 | 0.0 | 0.0 | 0.00 | 0.00 | 0.00 | 1006.7 | |
| 20260509204903 | -17 | 0.0 | 0.0 | 0.00 | 0.00 | 0.00 | 1006.8 | ||
| 20260509204804 | -17 | 0.0 | 0.0 | 0.00 | 0.00 | 0.00 | 1006.8 | ||
| 20260509204703 | -17 | 0.0 | 0.0 | 0.00 | 0.00 | 0.00 | 1006.7 | ||
| 20260509204604 | -17 | 0.0 | 0.0 | 0.00 | 0.00 | 0.00 | 1006.7 | ||
| 20260509204504 | -17 | 0.0 | 0.0 | 0.00 | 0.00 | 0.00 | 1006.7 | ||
| 20260509204403 | -17 | 0.0 | 0.0 | 0.00 | 0.00 | 0.00 | 1006.6 | ||
| 20260509204303 | -17 | 0.0 | 0.0 | 0.00 | 0.00 | 0.00 | 1006.6 | ||
| 20260509204203 | -17 | 0.0 | 0.0 | 0.00 | 0.00 | 0.00 | 1006.7 | ||
| 20260509204104 | -17 | 0.0 | 0.0 | 0.00 | 0.00 | 0.00 | 1006.7 | ||
| 20260509204003 | -17 | 0.0 | 0.0 | 0.00 | 0.00 | 0.00 | 1006.7 | ||
| 20260509203903 | -17 | 0.0 | 0.0 | 0.00 | 0.00 | 0.00 | 1006.7 | ||
| 20260509203802 | -17 | 0.0 | 0.0 | 0.00 | 0.00 | 0.00 | 1006.7 | ||
| 20260509203703 | -17 | 0.0 | 0.0 | 0.00 | 0.00 | 0.00 | 1006.8 | ||
| 20260509203603 | -17 | 0.0 | 0.0 | 0.00 | 0.00 | 0.00 | 1006.8 | ||
| 20260509203504 | -17 | 0.0 | 0.0 | 0.00 | 0.00 | 0.00 | 1006.7 | ||
| 20260509203403 | -17 | 0.0 | 0.0 | 0.00 | 0.00 | 0.00 | 1006.8 | ||
| 20260509203303 | -17 | 0.0 | 0.0 | 0.00 | 0.00 | 0.00 | 1006.8 | ||
| 20260509203203 | -17 | 0.0 | 0.0 | 0.00 | 0.00 | 0.00 | 1006.9 | ||
| 20260509203103 | -17 | 0.0 | 0.0 | 0.00 | 0.00 | 0.00 | 1006.8 | ||
| 20260509203002 | -17 | 0.0 | 0.0 | 0.00 | 0.00 | 0.00 | 1006.8 | ||
| 20260509202903 | -17 | 0.0 | 0.0 | 0.00 | 0.00 | 0.00 | 1006.8 | ||
| 20260509202803 | -17 | 0.0 | 0.0 | 0.00 | 0.00 | 0.00 | 1006.8 | ||
| 20260509202703 | -17 | 0.0 | 0.0 | 0.00 | 0.00 | 0.00 | 1006.8 | ||
| 20260509202603 | -17 | 0.0 | 0.0 | 0.00 | 0.00 | 0.00 | 1006.8 | ||
| 20260509202504 | -17 | 0.0 | 0.0 | 0.00 | 0.00 | 0.00 | 1006.8 | ||
| 20260509202403 | -17 | 0.0 | 0.0 | 0.00 | 0.00 | 0.00 | 1006.9 | ||
| 20260509202306 | -17 | 0.0 | 0.0 | 0.00 | 0.00 | 0.00 | 1006.8 | ||
| 20260509202203 | -17 | 0.0 | 0.0 | 0.00 | 0.00 | 0.00 | 1006.9 | ||
| 20260509202103 | -17 | 0.0 | 0.0 | 0.00 | 0.00 | 0.00 | 1006.9 | ||
| 20260509202004 | -17 | 0.0 | 0.0 | 0.00 | 0.00 | 0.00 | 1006.9 | ||
| 20260509201903 | -17 | 0.0 | 0.0 | 0.00 | 0.00 | 0.00 | 1007.0 | ||
| 20260509201803 | -17 | 0.0 | 0.0 | 0.00 | 0.00 | 0.00 | 1006.9 | ||
| 20260509201703 | -17 | 0.0 | 0.0 | 0.00 | 0.00 | 0.00 | 1007.0 | ||
| 20260509201603 | -17 | 0.0 | 0.0 | 0.00 | 0.00 | 0.00 | 1007.0 | ||
| 20260509201504 | -17 | 0.0 | 0.0 | 0.00 | 0.00 | 0.00 | 1006.8 | ||
| 20260509201403 | -17 | 0.0 | 0.0 | 0.00 | 0.00 | 0.00 | 1006.9 | ||
| 20260509201304 | -17 | 0.0 | 0.0 | 0.00 | 0.00 | 0.00 | 1006.9 | ||
| 20260509201203 | -17 | 0.0 | 0.0 | 0.00 | 0.00 | 0.00 | 1006.9 | ||
| 20260509201103 | 31 | 248 | 4.8 | 11.3 | 0.00 | 0.00 | 0.00 | 61 | 1006.8 |
| 20260509201003 | 31 | 248 | 4.8 | 11.3 | 0.00 | 0.00 | 0.00 | 61 | 1006.9 |
| 20260509200903 | 31 | 248 | 4.8 | 11.3 | 0.00 | 0.00 | 0.00 | 61 | 1006.9 |
| 20260509200803 | 31 | 248 | 4.8 | 11.3 | 0.00 | 0.00 | 0.00 | 61 | 1006.9 |
| 20260509200703 | 31 | 248 | 4.8 | 11.3 | 0.00 | 0.00 | 0.00 | 61 | 1007.0 |
| 20260509200603 | 31 | 248 | 4.8 | 11.3 | 0.00 | 0.00 | 0.00 | 61 | 1007.0 |
| 20260509200504 | 31 | 248 | 4.8 | 11.3 | 0.00 | 0.00 | 0.00 | 61 | 1007.0 |
| 20260509200403 | 31 | 248 | 4.8 | 11.3 | 0.00 | 0.00 | 0.00 | 61 | 1007.0 |
| 20260509200303 | 31 | 248 | 4.8 | 11.3 | 0.00 | 0.00 | 0.00 | 61 | 1007.0 |
| 20260509200203 | 31 | 248 | 4.8 | 11.3 | 0.00 | 0.00 | 0.00 | 61 | 1007.0 |
| 20260509200103 | 31 | 248 | 1.6 | 9.7 | 0.00 | 0.00 | 0.00 | 61 | 1007.0 |
| 20260509200005 | 31 | 248 | 1.6 | 9.7 | 0.00 | 0.00 | 0.00 | 61 | 1007.1 |
| 20260509195904 | 31 | 248 | 1.6 | 9.7 | 0.00 | 0.00 | 0.00 | 61 | 1007.1 |
| 20260509195803 | 31 | 248 | 4.8 | 9.7 | 0.00 | 0.00 | 0.00 | 62 | 1007.1 |
| 20260509195702 | 31 | 248 | 6.4 | 9.7 | 0.00 | 0.00 | 0.00 | 64 | 1007.2 |
| 20260509195602 | 31 | 248 | 3.2 | 9.7 | 0.00 | 0.00 | 0.00 | 64 | 1007.1 |
| 20260509195501 | 31 | 248 | 0.0 | 1.6 | 0.00 | 0.00 | 0.00 | 62 | 1007.1 |
| 20260509195403 | 31 | 248 | 0.0 | 1.6 | 0.00 | 0.00 | 0.00 | 62 | 1007.2 |
| 20260509195306 | -17 | 248 | 1.6 | 1.6 | 0.00 | 0.00 | 0.00 | 1007.1 | |
| 20260509195204 | -17 | 0.0 | 0.0 | 0.00 | 0.00 | 0.00 | 1007.2 | ||
| 20260509195104 | 31 | 245 | 3.2 | 11.3 | 0.00 | 0.00 | 0.00 | 65 | 1007.2 |
| 20260509195004 | 31 | 245 | 3.2 | 11.3 | 0.00 | 0.00 | 0.00 | 65 | 1007.2 |
| 20260509194904 | 31 | 245 | 3.2 | 11.3 | 0.00 | 0.00 | 0.00 | 65 | 1007.2 |
| 20260509194803 | 31 | 245 | 3.2 | 11.3 | 0.00 | 0.00 | 0.00 | 65 | 1007.1 |
| 20260509194703 | 31 | 245 | 3.2 | 11.3 | 0.00 | 0.00 | 0.00 | 65 | 1007.2 |
| 20260509194602 | 31 | 245 | 3.2 | 11.3 | 0.00 | 0.00 | 0.00 | 65 | 1007.2 |
| 20260509194504 | 31 | 245 | 3.2 | 11.3 | 0.00 | 0.00 | 0.00 | 65 | 1007.3 |
| 20260509194403 | 31 | 245 | 3.2 | 11.3 | 0.00 | 0.00 | 0.00 | 65 | 1007.3 |
| 20260509194304 | 31 | 245 | 3.2 | 11.3 | 0.00 | 0.00 | 0.00 | 65 | 1007.3 |
| 20260509194203 | 31 | 245 | 3.2 | 11.3 | 0.00 | 0.00 | 0.00 | 65 | 1007.3 |
| 20260509194103 | 31 | 245 | 1.6 | 8.0 | 0.00 | 0.00 | 0.00 | 65 | 1007.3 |
| 20260509194003 | 31 | 245 | 3.2 | 8.0 | 0.00 | 0.00 | 0.00 | 65 | 1007.3 |
| 20260509193904 | 31 | 245 | 3.2 | 8.0 | 0.00 | 0.00 | 0.00 | 65 | 1007.3 |
| 20260509193802 | 31 | 245 | 3.2 | 8.0 | 0.00 | 0.00 | 0.00 | 65 | 1007.3 |
| 20260509193703 | 31 | 245 | 3.2 | 8.0 | 0.00 | 0.00 | 0.00 | 65 | 1007.4 |
| 20260509193603 | 31 | 245 | 3.2 | 8.0 | 0.00 | 0.00 | 0.00 | 65 | 1007.4 |
| 20260509193504 | 31 | 245 | 3.2 | 6.4 | 0.00 | 0.00 | 0.00 | 65 | 1007.4 |
| 20260509193402 | 31 | 245 | 4.8 | 6.4 | 0.00 | 0.00 | 0.00 | 72 | 1007.5 |
| 20260509193304 | -17 | 0.0 | 0.0 | 0.00 | 0.00 | 0.00 | 1007.4 | ||
| 20260509193202 | -17 | 0.0 | 0.0 | 0.00 | 0.00 | 0.00 | 1007.3 | ||
| 20260509193103 | -17 | 0.0 | 0.0 | 0.00 | 0.03 | 0.00 | 1007.4 | ||
| 20260509193002 | -17 | 0.0 | 0.0 | 0.00 | 0.03 | 0.00 | 1007.4 | ||
| 20260509192903 | -17 | 0.0 | 0.0 | 0.00 | 0.03 | 0.00 | 1007.3 | ||
| 20260509192802 | -17 | 0.0 | 0.0 | 0.00 | 0.03 | 0.00 | 1007.3 | ||
| 20260509192703 | -17 | 0.0 | 0.0 | 0.00 | 0.03 | 0.00 | 1007.3 | ||
| 20260509192603 | -17 | 0.0 | 0.0 | 0.00 | 0.03 | 0.00 | 1007.3 | ||
| 20260509192503 | -17 | 0.0 | 0.0 | 0.00 | 0.03 | 0.00 | 1007.3 | ||
| 20260509192403 | -17 | 0.0 | 0.0 | 0.00 | 0.03 | 0.00 | 1007.4 | ||
| 20260509192306 | -17 | 0.0 | 0.0 | 0.00 | 0.03 | 0.00 | 1007.4 | ||
| 20260509192203 | -17 | 0.0 | 0.0 | 0.00 | 0.03 | 0.00 | 1007.4 | ||
| 20260509192103 | -17 | 0.0 | 0.0 | 0.00 | 0.03 | 0.00 | 1007.4 | ||
| 20260509192002 | -17 | 0.0 | 0.0 | 0.00 | 0.03 | 0.00 | 1007.4 | ||
| 20260509191903 | -17 | 0.0 | 0.0 | 0.00 | 0.03 | 0.00 | 1007.5 | ||
| 20260509191802 | -17 | 0.0 | 0.0 | 0.00 | 0.03 | 0.00 | 1007.4 | ||
| 20260509191702 | -17 | 0.0 | 0.0 | 0.00 | 0.03 | 0.00 | 1007.5 | ||
| 20260509191600 | -17 | 0.0 | 0.0 | 0.00 | 0.03 | 0.00 | 1007.6 | ||
| 20260509191501 | -17 | 0.0 | 0.0 | 0.00 | 0.03 | 0.00 | 1007.5 | ||
| 20260509191401 | -17 | 0.0 | 0.0 | 0.00 | 0.03 | 0.00 | 1007.6 | ||
| 20260509191302 | -17 | 0.0 | 0.0 | 0.00 | 0.03 | 0.00 | 1007.6 | ||
| 20260509191200 | -17 | 0.0 | 0.0 | 0.00 | 0.03 | 0.00 | 1007.5 | ||
| 20260509191059 | -17 | 0.0 | 0.0 | 0.00 | 0.03 | 0.00 | 1007.6 | ||
| 20260509191000 | -17 | 0.0 | 0.0 | 0.00 | 0.03 | 0.00 | 1007.5 | ||
| 20260509190859 | -17 | 0.0 | 0.0 | 0.00 | 0.03 | 0.00 | 1007.6 | ||
| 20260509190800 | -17 | 0.0 | 0.0 | 0.00 | 0.03 | 0.00 | 1007.6 | ||
| 20260509190659 | -17 | 0.0 | 0.0 | 0.00 | 0.03 | 0.00 | 1007.5 | ||
| 20260509190557 | -17 | 0.0 | 0.0 | 0.00 | 0.03 | 0.00 | 1007.6 | ||
| 20260509190457 | -17 | 0.0 | 0.0 | 0.00 | 0.03 | 0.00 | 1007.5 | ||
| 20260509190358 | -17 | 0.0 | 0.0 | 0.00 | 0.03 | 0.00 | 1007.6 | ||
| 20260509190257 | -17 | 0.0 | 0.0 | 0.00 | 0.03 | 0.00 | 1007.5 | ||
| 20260509190158 | -17 | 0.0 | 0.0 | 0.00 | 0.03 | 0.00 | 1007.5 | ||
| 20260509190056 | -17 | 0.0 | 0.0 | 0.00 | 0.03 | 0.00 | 1007.5 | ||
| 20260509185955 | -17 | 0.0 | 0.0 | 0.00 | 0.03 | 0.00 | 1007.6 | ||
| 20260509185855 | -17 | 0.0 | 0.0 | 0.00 | 0.03 | 0.00 | 1007.5 | ||
| 20260509185756 | -17 | 0.0 | 0.0 | 0.00 | 0.03 | 0.00 | 1007.5 | ||
| 20260509185655 | -17 | 0.0 | 0.0 | 0.00 | 0.03 | 0.00 | 1007.5 | ||
| 20260509185554 | -17 | 0.0 | 0.0 | 0.00 | 0.03 | 0.00 | 1007.6 | ||
| 20260509185453 | -17 | 0.0 | 0.0 | 0.00 | 0.03 | 0.00 | 1007.6 | ||
| 20260509185354 | -17 | 0.0 | 0.0 | 0.00 | 0.03 | 0.00 | 1007.6 | ||
| 20260509185253 | -17 | 0.0 | 0.0 | 0.00 | 0.03 | 0.00 | 1007.6 | ||
| 20260509185154 | -17 | 0.0 | 0.0 | 0.00 | 0.03 | 0.00 | 1007.5 | ||
| 20260509185052 | -17 | 0.0 | 0.0 | 0.00 | 0.03 | 0.00 | 1007.5 | ||
| 20260509184952 | -17 | 0.0 | 0.0 | 0.00 | 0.03 | 0.00 | 1007.6 | ||
| 20260509184851 | -17 | 0.0 | 0.0 | 0.00 | 0.03 | 0.00 | 1007.6 | ||
| 20260509184751 | -17 | 0.0 | 0.0 | 0.00 | 0.03 | 0.00 | 1007.6 | ||
| 20260509184652 | -17 | 0.0 | 0.0 | 0.00 | 0.03 | 0.00 | 1007.6 | ||
| 20260509184550 | -17 | 0.0 | 0.0 | 0.00 | 0.03 | 0.00 | 1007.6 | ||
| 20260509184451 | 29 | 243 | 0.0 | 0.0 | 0.00 | 0.03 | 0.00 | 72 | 1007.6 |
| 20260509184350 | 29 | 243 | 0.0 | 0.0 | 0.00 | 0.03 | 0.00 | 72 | 1007.6 |
| 20260509184249 | 29 | 243 | 0.0 | 3.2 | 0.00 | 0.03 | 0.00 | 72 | 1007.7 |
| 20260509184149 | 29 | 243 | 0.0 | 6.4 | 0.00 | 0.03 | 0.00 | 72 | 1007.7 |
| 20260509184048 | 29 | 243 | 0.0 | 6.4 | 0.00 | 0.03 | 0.00 | 72 | 1007.7 |
| 20260509183948 | 29 | 243 | 0.0 | 6.4 | 0.00 | 0.03 | 0.00 | 72 | 1007.7 |
| 20260509183848 | 29 | 243 | 0.0 | 6.4 | 0.00 | 0.03 | 0.00 | 72 | 1007.8 |
| 20260509183748 | 29 | 243 | 0.0 | 6.4 | 0.00 | 0.03 | 0.00 | 72 | 1007.8 |
| 20260509183647 | 29 | 243 | 0.0 | 6.4 | 0.00 | 0.03 | 0.00 | 72 | 1007.8 |
| 20260509183547 | 29 | 243 | 0.0 | 6.4 | 0.00 | 0.03 | 0.00 | 72 | 1007.8 |
| 20260509183448 | 29 | 243 | 0.0 | 6.4 | 0.00 | 0.03 | 0.00 | 72 | 1007.8 |
| 20260509183346 | 30 | 243 | 3.2 | 6.4 | 0.00 | 0.03 | 0.00 | 74 | 1007.8 |
| 20260509183248 | 29 | 243 | 1.6 | 6.4 | 0.00 | 0.03 | 0.00 | 73 | 1007.9 |
| 20260509183148 | 29 | 243 | 0.0 | 1.6 | 0.00 | 0.03 | 0.00 | 73 | 1007.9 |
| 20260509183048 | 29 | 243 | 0.0 | 1.6 | 0.00 | 0.03 | 0.00 | 72 | 1007.9 |
| 20260509182946 | 29 | 243 | 0.0 | 1.6 | 0.00 | 0.03 | 0.00 | 71 | 1008.0 |
| 20260509182847 | 29 | 243 | 0.0 | 0.0 | 0.00 | 0.03 | 0.00 | 77 | 1007.9 |
| 20260509182748 | -17 | 0.0 | 0.0 | 0.00 | 0.03 | 0.00 | 1008.0 | ||
| 20260509182647 | -17 | 0.0 | 0.0 | 0.00 | 0.03 | 0.00 | 1008.0 | ||
| 20260509182545 | -17 | 0.0 | 0.0 | 0.00 | 0.03 | 0.00 | 1007.9 | ||
| 20260509182446 | -17 | 0.0 | 0.0 | 0.00 | 0.03 | 0.00 | 1008.0 | ||
| 20260509182346 | -17 | 0.0 | 0.0 | 0.00 | 0.03 | 0.00 | 1008.0 | ||
| 20260509182246 | -17 | 0.0 | 0.0 | 0.00 | 0.03 | 0.00 | 1008.0 | ||
| 20260509182146 | -17 | 0.0 | 0.0 | 0.00 | 0.05 | 0.00 | 1008.1 | ||
| 20260509182045 | -17 | 0.0 | 0.0 | 0.00 | 0.05 | 0.00 | 1008.1 | ||
| 20260509181944 | -17 | 0.0 | 0.0 | 0.00 | 0.05 | 0.00 | 1008.1 | ||
| 20260509181845 | -17 | 0.0 | 0.0 | 0.00 | 0.05 | 0.00 | 1008.2 | ||
| 20260509181744 | -17 | 0.0 | 0.0 | 0.00 | 0.05 | 0.00 | 1008.1 | ||
| 20260509181645 | -17 | 0.0 | 0.0 | 0.00 | 0.05 | 0.00 | 1008.2 | ||
| 20260509181542 | -17 | 0.0 | 0.0 | 0.00 | 0.05 | 0.00 | 1008.2 | ||
| 20260509181442 | -17 | 0.0 | 0.0 | 0.00 | 0.05 | 0.00 | 1008.2 | ||
| 20260509181344 | -17 | 0.0 | 0.0 | 0.00 | 0.05 | 0.00 | 1008.3 | ||
| 20260509181242 | -17 | 0.0 | 0.0 | 0.00 | 0.05 | 0.00 | 1008.2 | ||
| 20260509181142 | -17 | 0.0 | 0.0 | 0.00 | 0.05 | 0.00 | 1008.3 | ||
| 20260509181041 | -17 | 0.0 | 0.0 | 0.00 | 0.05 | 0.00 | 1008.4 | ||
| 20260509180940 | -17 | 0.0 | 0.0 | 0.00 | 0.05 | 0.00 | 1008.3 | ||
| 20260509180841 | -17 | 0.0 | 0.0 | 0.00 | 0.05 | 0.00 | 1008.5 | ||
| 20260509180740 | -17 | 0.0 | 0.0 | 0.00 | 0.05 | 0.00 | 1008.5 | ||
| 20260509180640 | -17 | 0.0 | 0.0 | 0.00 | 0.05 | 0.00 | 1008.5 | ||
| 20260509180539 | -17 | 0.0 | 0.0 | 0.00 | 0.05 | 0.00 | 1008.5 | ||
| 20260509180439 | -17 | 0.0 | 0.0 | 0.00 | 0.05 | 0.00 | 1008.6 | ||
| 20260509180338 | -17 | 0.0 | 0.0 | 0.00 | 0.05 | 0.00 | 1008.5 | ||
| 20260509180239 | -17 | 0.0 | 0.0 | 0.00 | 0.05 | 0.00 | 1008.6 | ||
| 20260509180139 | -17 | 0.0 | 0.0 | 0.00 | 0.05 | 0.00 | 1008.7 | ||
| 20260509180038 | -17 | 0.0 | 0.0 | 0.00 | 0.05 | 0.00 | 1008.6 | ||
| 20260509175938 | -17 | 0.0 | 0.0 | 0.00 | 0.05 | 0.00 | 1008.6 | ||
| 20260509175835 | -17 | 0.0 | 0.0 | 0.00 | 0.05 | 0.00 | 1008.7 | ||
| 20260509175736 | -17 | 0.0 | 0.0 | 0.00 | 0.05 | 0.00 | 1008.7 | ||
| 20260509175632 | -17 | 0.0 | 0.0 | 0.00 | 0.05 | 0.00 | 1008.7 | ||
| 20260509175532 | -17 | 0.0 | 0.0 | 0.00 | 0.05 | 0.00 | 1008.7 | ||
| 20260509175432 | -17 | 0.0 | 0.0 | 0.00 | 0.05 | 0.00 | 1008.8 | ||
| 20260509175332 | -17 | 0.0 | 0.0 | 0.00 | 0.05 | 0.00 | 1008.7 | ||
| 20260509175232 | -17 | 0.0 | 0.0 | 0.00 | 0.05 | 0.00 | 1008.8 | ||
| 20260509175131 | -17 | 0.0 | 0.0 | 0.00 | 0.05 | 0.00 | 1008.8 | ||
| 20260509175032 | -17 | 0.0 | 0.0 | 0.00 | 0.05 | 0.00 | 1008.8 | ||
| 20260509174933 | -17 | 0.0 | 0.0 | 0.00 | 0.05 | 0.00 | 1008.8 | ||
| 20260509174833 | -17 | 0.0 | 0.0 | 0.00 | 0.05 | 0.00 | 1008.8 | ||
| 20260509174732 | -17 | 0.0 | 0.0 | 0.00 | 0.05 | 0.00 | 1008.9 | ||
| 20260509174632 | -17 | 0.0 | 0.0 | 0.00 | 0.05 | 0.00 | 1008.8 | ||
| 20260509174531 | -17 | 0.0 | 0.0 | 0.00 | 0.05 | 0.00 | 1008.8 | ||
| 20260509174431 | -17 | 0.0 | 0.0 | 0.00 | 0.05 | 0.00 | 1008.8 | ||
| 20260509174331 | -17 | 0.0 | 0.0 | 0.00 | 0.05 | 0.00 | 1008.7 | ||
| 20260509174231 | -17 | 0.0 | 0.0 | 0.00 | 0.05 | 0.00 | 1008.8 | ||
| 20260509174131 | -17 | 0.0 | 0.0 | 0.00 | 0.05 | 0.00 | 1008.7 | ||
| 20260509174030 | -17 | 0.0 | 0.0 | 0.00 | 0.05 | 0.00 | 1008.6 | ||
| 20260509173929 | 28 | 216 | 6.4 | 6.4 | 0.00 | 0.05 | 0.00 | 77 | 1008.7 |
| 20260509173830 | 28 | 216 | 6.4 | 11.3 | 0.00 | 0.05 | 0.00 | 77 | 1008.6 |
| 20260509173729 | 28 | 216 | 6.4 | 17.7 | 0.00 | 0.05 | 0.00 | 77 | 1008.7 |
| 20260509173629 | 28 | 216 | 6.4 | 17.7 | 0.00 | 0.05 | 0.00 | 77 | 1008.7 |
| 20260509173528 | 28 | 216 | 6.4 | 17.7 | 0.00 | 0.05 | 0.00 | 77 | 1008.7 |
| 20260509173431 | 28 | 216 | 6.4 | 17.7 | 0.00 | 0.05 | 0.00 | 77 | 1008.7 |
| 20260509173303 | 28 | 216 | 6.4 | 17.7 | 0.00 | 0.05 | 0.00 | 77 | 1008.7 |
| 20260509173203 | 28 | 216 | 6.4 | 17.7 | 0.00 | 0.05 | 0.00 | 77 | 1008.8 |
| 20260509173103 | 28 | 216 | 6.4 | 17.7 | 0.00 | 0.05 | 0.00 | 77 | 1008.8 |
| 20260509173003 | 28 | 216 | 8.0 | 17.7 | 0.00 | 0.05 | 0.00 | 76 | 1008.8 |
| 20260509172902 | 28 | 216 | 9.7 | 17.7 | 0.00 | 0.05 | 0.00 | 76 | 1008.8 |
| 20260509172802 | 28 | 219 | 8.0 | 14.5 | 0.00 | 0.05 | 0.00 | 77 | 1008.9 |
| 20260509172702 | 28 | 137 | 8.0 | 14.5 | 0.00 | 0.05 | 0.00 | 77 | 1008.9 |
| 20260509172603 | 28 | 135 | 9.7 | 14.5 | 0.00 | 0.05 | 0.00 | 79 | 1008.9 |
| 20260509172504 | 27 | 131 | 9.7 | 14.5 | 0.00 | 0.05 | 0.00 | 79 | 1009.0 |
| 20260509172403 | 27 | 114 | 8.0 | 14.5 | 0.00 | 0.05 | 0.00 | 80 | 1009.0 |
| 20260509172306 | 27 | 89 | 6.4 | 6.4 | 0.00 | 0.05 | 0.00 | 83 | 1009.0 |
| 20260509172203 | -17 | 0.0 | 0.0 | 0.00 | 0.05 | 0.00 | 1009.1 | ||
| 20260509172103 | -17 | 0.0 | 0.0 | 0.00 | 0.05 | 0.00 | 1009.0 | ||
| 20260509172003 | -17 | 0.0 | 0.0 | 0.00 | 0.05 | 0.00 | 1009.1 | ||
| 20260509171903 | -17 | 0.0 | 0.0 | 0.00 | 0.05 | 0.00 | 1009.1 | ||
| 20260509171803 | -17 | 0.0 | 0.0 | 0.00 | 0.05 | 0.00 | 1009.1 | ||
| 20260509171704 | -17 | 0.0 | 0.0 | 0.00 | 0.05 | 0.00 | 1009.1 | ||
| 20260509171603 | -17 | 0.0 | 0.0 | 0.00 | 0.05 | 0.00 | 1009.2 | ||
| 20260509171504 | -17 | 0.0 | 0.0 | 0.00 | 0.05 | 0.00 | 1009.1 | ||
| 20260509171404 | -17 | 0.0 | 0.0 | 0.00 | 0.05 | 0.00 | 1009.1 | ||
| 20260509171303 | -17 | 0.0 | 0.0 | 0.00 | 0.05 | 0.00 | 1009.2 | ||
| 20260509171203 | -17 | 0.0 | 0.0 | 0.00 | 0.05 | 0.00 | 1009.2 | ||
| 20260509171103 | -17 | 0.0 | 0.0 | 0.00 | 0.05 | 0.00 | 1009.2 | ||
| 20260509171003 | -17 | 0.0 | 0.0 | 0.00 | 0.05 | 0.00 | 1009.3 | ||
| 20260509170903 | -17 | 0.0 | 0.0 | 0.00 | 0.05 | 0.00 | 1009.3 | ||
| 20260509170803 | -17 | 0.0 | 0.0 | 0.00 | 0.05 | 0.00 | 1009.3 | ||
| 20260509170703 | -17 | 0.0 | 0.0 | 0.00 | 0.05 | 0.00 | 1009.2 | ||
| 20260509170604 | -17 | 0.0 | 0.0 | 0.00 | 0.05 | 0.00 | 1009.2 | ||
| 20260509170504 | -17 | 0.0 | 0.0 | 0.00 | 0.05 | 0.00 | 1009.3 | ||
| 20260509170403 | -17 | 0.0 | 0.0 | 0.00 | 0.05 | 0.00 | 1009.2 | ||
| 20260509170303 | -17 | 0.0 | 0.0 | 0.00 | 0.05 | 0.00 | 1009.3 | ||
| 20260509170203 | -17 | 0.0 | 0.0 | 0.00 | 0.05 | 0.00 | 1009.3 | ||
| 20260509170104 | -17 | 0.0 | 0.0 | 0.00 | 0.05 | 0.00 | 1009.3 | ||
| 20260509170003 | -17 | 0.0 | 0.0 | 0.00 | 0.05 | 0.00 | 1009.4 | ||
| 20260509165903 | -17 | 0.0 | 0.0 | 0.00 | 0.05 | 0.00 | 1009.4 | ||
| 20260509165804 | -17 | 0.0 | 0.0 | 0.00 | 0.05 | 0.00 | 1009.3 | ||
| 20260509165703 | -17 | 0.0 | 0.0 | 0.00 | 0.05 | 0.00 | 1009.3 | ||
| 20260509165603 | -17 | 0.0 | 0.0 | 0.00 | 0.05 | 0.00 | 1009.3 | ||
| 20260509165504 | -17 | 0.0 | 0.0 | 0.00 | 0.05 | 0.00 | 1009.3 | ||
| 20260509165403 | -17 | 0.0 | 0.0 | 0.00 | 0.05 | 0.00 | 1009.3 | ||
| 20260509165306 | -17 | 0.0 | 0.0 | 0.00 | 0.05 | 0.00 | 1009.3 | ||
| 20260509165203 | -17 | 0.0 | 0.0 | 0.00 | 0.05 | 0.00 | 1009.3 | ||
| 20260509165102 | -17 | 0.0 | 0.0 | 0.00 | 0.05 | 0.00 | 1009.2 | ||
| 20260509165003 | -17 | 0.0 | 0.0 | 0.00 | 0.05 | 0.00 | 1009.3 | ||
| 20260509164903 | -17 | 0.0 | 0.0 | 0.00 | 0.05 | 0.00 | 1009.3 | ||
| 20260509164804 | -17 | 0.0 | 0.0 | 0.00 | 0.08 | 0.00 | 1009.3 | ||
| 20260509164703 | -17 | 0.0 | 0.0 | 0.00 | 0.08 | 0.00 | 1009.2 | ||
| 20260509164603 | -17 | 0.0 | 0.0 | 0.00 | 0.08 | 0.00 | 1009.2 | ||
| 20260509164504 | -17 | 0.0 | 0.0 | 0.00 | 0.08 | 0.00 | 1009.3 | ||
| 20260509164404 | -17 | 0.0 | 0.0 | 0.00 | 0.08 | 0.00 | 1009.3 | ||
| 20260509164303 | -17 | 0.0 | 0.0 | 0.00 | 0.08 | 0.00 | 1009.2 | ||
| 20260509164203 | -17 | 0.0 | 0.0 | 0.00 | 0.08 | 0.00 | 1009.2 | ||
| 20260509164103 | -17 | 0.0 | 0.0 | 0.00 | 0.08 | 0.00 | 1009.2 | ||
| 20260509164003 | -17 | 0.0 | 0.0 | 0.00 | 0.08 | 0.00 | 1009.3 | ||
| 20260509163903 | -17 | 0.0 | 0.0 | 0.00 | 0.08 | 0.00 | 1009.3 | ||
| 20260509163803 | -17 | 0.0 | 0.0 | 0.00 | 0.08 | 0.00 | 1009.2 | ||
| 20260509163703 | -17 | 0.0 | 0.0 | 0.00 | 0.08 | 0.00 | 1009.3 | ||
| 20260509163603 | -17 | 0.0 | 0.0 | 0.00 | 0.08 | 0.00 | 1009.2 | ||
| 20260509163504 | -17 | 0.0 | 0.0 | 0.00 | 0.08 | 0.00 | 1009.3 | ||
| 20260509163403 | 26 | 79 | 0.0 | 0.0 | 0.00 | 0.08 | 0.00 | 83 | 1009.2 |
| 20260509163303 | 26 | 79 | 0.0 | 0.0 | 0.00 | 0.08 | 0.00 | 83 | 1009.2 |
| 20260509163204 | 26 | 79 | 0.0 | 1.6 | 0.00 | 0.08 | 0.00 | 83 | 1009.2 |
| 20260509163103 | 26 | 79 | 0.0 | 1.6 | 0.00 | 0.08 | 0.00 | 83 | 1009.1 |
| 20260509163004 | 26 | 79 | 0.0 | 1.6 | 0.00 | 0.08 | 0.00 | 83 | 1009.2 |
| 20260509162902 | 26 | 79 | 0.0 | 1.6 | 0.00 | 0.08 | 0.00 | 83 | 1009.2 |
| 20260509162803 | 26 | 79 | 0.0 | 1.6 | 0.00 | 0.08 | 0.00 | 83 | 1009.2 |
| 20260509162703 | 26 | 79 | 0.0 | 1.6 | 0.00 | 0.08 | 0.00 | 83 | 1009.2 |
| 20260509162603 | 26 | 79 | 0.0 | 1.6 | 0.00 | 0.08 | 0.00 | 83 | 1009.1 |
| 20260509162504 | 26 | 79 | 0.0 | 1.6 | 0.00 | 0.08 | 0.00 | 83 | 1009.1 |
| 20260509162403 | 26 | 79 | 0.0 | 1.6 | 0.00 | 0.08 | 0.00 | 84 | 1009.2 |
| 20260509162307 | 26 | 79 | 0.0 | 1.6 | 0.00 | 0.08 | 0.00 | 84 | 1009.1 |
| 20260509162205 | 26 | 79 | 0.0 | 0.0 | 0.00 | 0.08 | 0.00 | 84 | 1009.1 |
| 20260509162102 | 26 | 79 | 0.0 | 0.0 | 0.00 | 0.08 | 0.00 | 84 | 1009.1 |
| 20260509162003 | 26 | 79 | 0.0 | 0.0 | 0.00 | 0.08 | 0.00 | 84 | 1009.2 |
| 20260509161902 | 26 | 79 | 0.0 | 0.0 | 0.00 | 0.08 | 0.00 | 84 | 1009.2 |
| 20260509161803 | 26 | 79 | 0.0 | 0.0 | 0.00 | 0.08 | 0.00 | 89 | 1009.2 |
| 20260509161703 | -17 | 0.0 | 0.0 | 0.00 | 0.08 | 0.00 | 1009.2 | ||
| 20260509161603 | -17 | 0.0 | 0.0 | 0.00 | 0.08 | 0.00 | 1009.2 | ||
| 20260509161504 | -17 | 0.0 | 0.0 | 0.00 | 0.08 | 0.00 | 1009.3 | ||
| 20260509161403 | 26 | 79 | 0.0 | 0.0 | 0.00 | 0.08 | 0.00 | 89 | 1009.3 |
| 20260509161303 | 26 | 79 | 0.0 | 0.0 | 0.00 | 0.08 | 0.00 | 89 | 1009.2 |
| 20260509161204 | 26 | 79 | 0.0 | 0.0 | 0.00 | 0.08 | 0.00 | 89 | 1009.2 |
| 20260509161103 | 26 | 79 | 0.0 | 0.0 | 0.00 | 0.08 | 0.00 | 89 | 1009.2 |
| 20260509161003 | 26 | 79 | 0.0 | 0.0 | 0.00 | 0.08 | 0.00 | 89 | 1009.3 |
| 20260509160903 | 26 | 79 | 0.0 | 0.0 | 0.00 | 0.08 | 0.00 | 89 | 1009.2 |
| 20260509160803 | 26 | 79 | 0.0 | 0.0 | 0.00 | 0.08 | 0.00 | 89 | 1009.2 |
| 20260509160703 | 26 | 79 | 0.0 | 0.0 | 0.00 | 0.08 | 0.00 | 89 | 1009.2 |
| 20260509160603 | 26 | 79 | 0.0 | 0.0 | 0.00 | 0.08 | 0.00 | 89 | 1009.2 |
| 20260509160504 | 26 | 79 | 0.0 | 0.0 | 0.00 | 0.08 | 0.00 | 89 | 1009.2 |
| 20260509160403 | -17 | 0.0 | 0.0 | 0.00 | 0.08 | 0.00 | 1009.2 | ||
| 20260509160303 | -17 | 0.0 | 0.0 | 0.00 | 0.08 | 0.00 | 1009.2 | ||
| 20260509160202 | -17 | 0.0 | 0.0 | 0.00 | 0.08 | 0.00 | 1009.2 | ||
| 20260509160002 | -17 | 0.0 | 0.0 | 0.00 | 0.08 | 0.00 | 1009.3 | ||
| 20260509155901 | -17 | 0.0 | 0.0 | 0.00 | 0.08 | 0.00 | 1009.2 | ||
| 20260509155801 | -17 | 0.0 | 0.0 | 0.00 | 0.08 | 0.00 | 1009.2 | ||
| 20260509155700 | -17 | 0.0 | 0.0 | 0.00 | 0.08 | 0.00 | 1009.2 | ||
| 20260509155600 | -17 | 0.0 | 0.0 | 0.00 | 0.08 | 0.00 | 1009.2 | ||
| 20260509155459 | -17 | 0.0 | 0.0 | 0.00 | 0.08 | 0.00 | 1009.2 | ||
| 20260509155400 | -17 | 0.0 | 0.0 | 0.00 | 0.08 | 0.00 | 1009.2 | ||
| 20260509155300 | -17 | 0.0 | 0.0 | 0.00 | 0.08 | 0.00 | 1009.1 | ||
| 20260509155158 | -17 | 0.0 | 0.0 | 0.00 | 0.08 | 0.00 | 1009.1 | ||
| 20260509155058 | -17 | 0.0 | 0.0 | 0.00 | 0.08 | 0.00 | 1009.1 | ||
| 20260509154957 | -17 | 0.0 | 0.0 | 0.00 | 0.08 | 0.00 | 1009.1 | ||
| 20260509154858 | -17 | 0.0 | 0.0 | 0.00 | 0.08 | 0.00 | 1009.1 | ||
| 20260509154757 | -17 | 0.0 | 0.0 | 0.00 | 0.08 | 0.00 | 1009.2 | ||
| 20260509154657 | -17 | 0.0 | 0.0 | 0.00 | 0.08 | 0.00 | 1009.3 | ||
| 20260509154556 | -17 | 0.0 | 0.0 | 0.00 | 0.08 | 0.00 | 1009.2 | ||
| 20260509154457 | -17 | 0.0 | 0.0 | 0.00 | 0.08 | 0.00 | 1009.2 | ||
| 20260509154356 | -17 | 0.0 | 0.0 | 0.00 | 0.08 | 0.00 | 1009.2 | ||
| 20260509154257 | -17 | 0.0 | 0.0 | 0.00 | 0.08 | 0.00 | 1009.1 | ||
| 20260509154154 | -17 | 0.0 | 0.0 | 0.00 | 0.08 | 0.00 | 1009.0 | ||
| 20260509154055 | -17 | 0.0 | 0.0 | 0.00 | 0.08 | 0.00 | 1009.0 | ||
| 20260509153954 | -17 | 0.0 | 0.0 | 0.00 | 0.08 | 0.00 | 1009.0 | ||
| 20260509153854 | -17 | 0.0 | 0.0 | 0.00 | 0.08 | 0.00 | 1009.0 | ||
| 20260509153754 | -17 | 0.0 | 0.0 | 0.00 | 0.08 | 0.00 | 1009.0 | ||
| 20260509153652 | -17 | 0.0 | 0.0 | 0.00 | 0.08 | 0.00 | 1009.0 | ||
| 20260509153552 | -17 | 0.0 | 0.0 | 0.00 | 0.08 | 0.00 | 1009.0 | ||
| 20260509153453 | -17 | 0.0 | 0.0 | 0.00 | 0.08 | 0.00 | 1009.0 | ||
| 20260509153352 | -17 | 0.0 | 0.0 | 0.00 | 0.08 | 0.00 | 1008.9 | ||
| 20260509153252 | -17 | 0.0 | 0.0 | 0.00 | 0.08 | 0.00 | 1008.9 | ||
| 20260509153151 | -17 | 0.0 | 0.0 | 0.00 | 0.08 | 0.00 | 1008.9 | ||
| 20260509153050 | 25 | 82 | 0.0 | 0.0 | 0.00 | 0.08 | 0.00 | 89 | 1009.0 |
| 20260509152951 | 25 | 82 | 0.0 | 0.0 | 0.00 | 0.08 | 0.00 | 89 | 1009.0 |
| 20260509152851 | 25 | 82 | 0.0 | 0.0 | 0.00 | 0.08 | 0.00 | 89 | 1008.9 |
| 20260509152752 | 25 | 82 | 0.0 | 0.0 | 0.00 | 0.08 | 0.00 | 89 | 1009.0 |
| 20260509152649 | 25 | 82 | 0.0 | 0.0 | 0.00 | 0.08 | 0.00 | 89 | 1009.0 |
| 20260509152548 | 25 | 82 | 0.0 | 0.0 | 0.00 | 0.08 | 0.00 | 89 | 1009.0 |
| 20260509152449 | 25 | 82 | 0.0 | 0.0 | 0.00 | 0.08 | 0.00 | 89 | 1009.0 |
| 20260509152348 | 25 | 82 | 0.0 | 0.0 | 0.00 | 0.08 | 0.00 | 89 | 1009.0 |
| 20260509152231 | 25 | 82 | 0.0 | 0.0 | 0.00 | 0.08 | 0.00 | 89 | 1009.1 |
| 20260509152132 | 25 | 82 | 0.0 | 0.0 | 0.00 | 0.08 | 0.00 | 89 | 1009.1 |
| 20260509152031 | 25 | 79 | 0.0 | 0.0 | 0.00 | 0.08 | 0.00 | 89 | 1009.2 |
| 20260509151932 | 25 | 79 | 0.0 | 0.0 | 0.00 | 0.08 | 0.00 | 89 | 1009.2 |
| 20260509151832 | 25 | 79 | 0.0 | 0.0 | 0.00 | 0.08 | 0.00 | 89 | 1009.2 |
| 20260509151732 | 25 | 79 | 0.0 | 0.0 | 0.00 | 0.08 | 0.00 | 89 | 1009.2 |
| 20260509151632 | 25 | 79 | 0.0 | 0.0 | 0.00 | 0.08 | 0.00 | 89 | 1009.2 |
| 20260509151531 | 25 | 78 | 0.0 | 0.0 | 0.00 | 0.08 | 0.00 | 89 | 1009.1 |
| 20260509151430 | 25 | 78 | 0.0 | 0.0 | 0.00 | 0.08 | 0.00 | 89 | 1009.1 |
| 20260509151331 | 25 | 0 | 0.0 | 0.0 | 0.00 | 0.08 | 0.00 | 90 | 1009.1 |
| 20260509151232 | 25 | 0 | 0.0 | 0.0 | 0.00 | 0.08 | 0.00 | 90 | 1009.1 |
| 20260509151132 | 25 | 0 | 0.0 | 0.0 | 0.00 | 0.08 | 0.00 | 90 | 1009.1 |
| 20260509151033 | 25 | 0 | 0.0 | 0.0 | 0.00 | 0.08 | 0.00 | 90 | 1009.1 |
| 20260509150933 | 25 | 0 | 0.0 | 0.0 | 0.00 | 0.08 | 0.00 | 90 | 1009.2 |
| 20260509150832 | 25 | 0 | 0.0 | 0.0 | 0.00 | 0.08 | 0.00 | 90 | 1009.2 |
| 20260509150731 | 25 | 0 | 0.0 | 0.0 | 0.00 | 0.08 | 0.00 | 90 | 1009.1 |
| 20260509150632 | 25 | 0 | 0.0 | 0.0 | 0.00 | 0.08 | 0.00 | 90 | 1009.1 |
| 20260509150532 | 25 | 0 | 0.0 | 0.0 | 0.00 | 0.08 | 0.00 | 90 | 1009.1 |
| 20260509150404 | 25 | 0 | 0.0 | 0.0 | 0.00 | 0.08 | 0.00 | 90 | 1009.1 |
| 20260509150301 | 25 | 0 | 0.0 | 0.0 | 0.00 | 0.08 | 0.00 | 90 | 1009.1 |
| 20260509150201 | 25 | 0 | 0.0 | 0.0 | 0.00 | 0.08 | 0.00 | 91 | 1009.1 |
| 20260509150103 | 25 | 0 | 0.0 | 0.0 | 0.00 | 0.08 | 0.00 | 91 | 1009.0 |
| 20260509150002 | 25 | 0 | 0.0 | 0.0 | 0.00 | 0.08 | 0.00 | 91 | 1009.0 |
| 20260509145902 | 25 | 0 | 0.0 | 0.0 | 0.00 | 0.08 | 0.00 | 93 | 1008.9 |
| 20260509145803 | -17 | 0.0 | 0.0 | 0.00 | 0.08 | 0.00 | 1009.0 | ||
| 20260509145703 | -17 | 0.0 | 0.0 | 0.00 | 0.08 | 0.00 | 1008.8 | ||
| 20260509145603 | -17 | 0.0 | 0.0 | 0.00 | 0.08 | 0.00 | 1008.9 | ||
| 20260509145503 | -17 | 0.0 | 0.0 | 0.00 | 0.08 | 0.00 | 1009.0 | ||
| 20260509145403 | -17 | 0.0 | 0.0 | 0.00 | 0.08 | 0.00 | 1008.9 | ||
| 20260509145306 | -17 | 0.0 | 0.0 | 0.00 | 0.08 | 0.00 | 1008.9 | ||
| 20260509145203 | -17 | 0.0 | 0.0 | 0.00 | 0.08 | 0.00 | 1008.8 | ||
| 20260509145104 | -17 | 0.0 | 0.0 | 0.00 | 0.08 | 0.00 | 1008.8 | ||
| 20260509145003 | -17 | 0.0 | 0.0 | 0.00 | 0.08 | 0.00 | 1008.9 | ||
| 20260509144903 | -17 | 0.0 | 0.0 | 0.00 | 0.08 | 0.00 | 1008.8 | ||
| 20260509144803 | -17 | 0.0 | 0.0 | 0.00 | 0.08 | 0.00 | 1008.9 | ||
| 20260509144703 | -17 | 0.0 | 0.0 | 0.00 | 0.08 | 0.00 | 1008.8 | ||
| 20260509144603 | -17 | 0.0 | 0.0 | 0.00 | 0.08 | 0.00 | 1008.9 | ||
| 20260509144503 | -17 | 0.0 | 0.0 | 0.00 | 0.08 | 0.00 | 1008.9 | ||
| 20260509144403 | -17 | 0.0 | 0.0 | 0.00 | 0.08 | 0.00 | 1009.0 | ||
| 20260509144303 | -17 | 0.0 | 0.0 | 0.00 | 0.08 | 0.00 | 1009.0 | ||
| 20260509144203 | -17 | 0.0 | 0.0 | 0.00 | 0.08 | 0.00 | 1008.9 | ||
| 20260509144103 | -17 | 0.0 | 0.0 | 0.00 | 0.08 | 0.00 | 1008.9 | ||
| 20260509144005 | -17 | 0.0 | 0.0 | 0.00 | 0.08 | 0.00 | 1008.9 | ||
| 20260509143903 | -17 | 0.0 | 0.0 | 0.00 | 0.08 | 0.00 | 1008.8 | ||
| 20260509143804 | -17 | 0.0 | 0.0 | 0.00 | 0.08 | 0.00 | 1008.8 | ||
| 20260509143703 | -17 | 0.0 | 0.0 | 0.00 | 0.08 | 0.00 | 1008.8 | ||
| 20260509143604 | -17 | 0.0 | 0.0 | 0.00 | 0.08 | 0.00 | 1008.9 | ||
| 20260509143503 | -17 | 0.0 | 0.0 | 0.00 | 0.08 | 0.00 | 1008.8 | ||
| 20260509143403 | -17 | 0.0 | 0.0 | 0.00 | 0.08 | 0.00 | 1008.8 | ||
| 20260509143303 | -17 | 0.0 | 0.0 | 0.00 | 0.08 | 0.00 | 1008.6 | ||
| 20260509143203 | -17 | 0.0 | 0.0 | 0.00 | 0.08 | 0.00 | 1008.6 | ||
| 20260509143103 | -17 | 0.0 | 0.0 | 0.00 | 0.08 | 0.00 | 1008.6 | ||
| 20260509143003 | -17 | 0.0 | 0.0 | 0.00 | 0.08 | 0.00 | 1008.5 | ||
| 20260509142904 | -17 | 0.0 | 0.0 | 0.00 | 0.08 | 0.00 | 1008.5 | ||
| 20260509142802 | -17 | 0.0 | 0.0 | 0.00 | 0.08 | 0.00 | 1008.6 | ||
| 20260509142703 | -17 | 0.0 | 0.0 | 0.00 | 0.08 | 0.00 | 1008.6 | ||
| 20260509142603 | -17 | 0.0 | 0.0 | 0.00 | 0.08 | 0.00 | 1008.7 | ||
| 20260509142504 | 25 | 0 | 0.0 | 0.0 | 0.00 | 0.08 | 0.00 | 93 | 1008.7 |
| 20260509142403 | 25 | 0 | 0.0 | 1.6 | 0.00 | 0.08 | 0.00 | 93 | 1008.7 |
| 20260509142306 | 25 | 0 | 0.0 | 3.2 | 0.00 | 0.08 | 0.00 | 93 | 1008.7 |
| 20260509142204 | 25 | 0 | 0.0 | 3.2 | 0.00 | 0.08 | 0.00 | 93 | 1008.6 |
| 20260509142103 | 25 | 0 | 0.0 | 3.2 | 0.00 | 0.08 | 0.00 | 93 | 1008.6 |
| 20260509142004 | 25 | 0 | 0.0 | 4.8 | 0.00 | 0.08 | 0.00 | 93 | 1008.6 |
| 20260509141903 | 25 | 0 | 0.0 | 4.8 | 0.00 | 0.08 | 0.00 | 93 | 1008.5 |
| 20260509141803 | 25 | 0 | 0.0 | 4.8 | 0.00 | 0.08 | 0.00 | 93 | 1008.5 |
| 20260509141703 | 25 | 0 | 0.0 | 4.8 | 0.00 | 0.08 | 0.00 | 93 | 1008.3 |
| 20260509141603 | 25 | 0 | 0.0 | 4.8 | 0.00 | 0.08 | 0.00 | 93 | 1008.2 |
| 20260509141505 | 25 | 0 | 0.0 | 4.8 | 0.00 | 0.08 | 0.00 | 93 | 1008.2 |
| 20260509141402 | 25 | 0 | 1.6 | 4.8 | 0.00 | 0.08 | 0.00 | 93 | 1008.2 |
| 20260509141303 | 25 | 0 | 0.0 | 4.8 | 0.00 | 0.08 | 0.00 | 93 | 1008.2 |
| 20260509141203 | 25 | 0 | 1.6 | 4.8 | 0.00 | 0.08 | 0.00 | 93 | 1008.2 |
| 20260509141102 | 25 | 0 | 3.2 | 4.8 | 0.00 | 0.08 | 0.00 | 93 | 1008.2 |
| 20260509141002 | 25 | 0 | 1.6 | 3.2 | 0.00 | 0.08 | 0.00 | 93 | 1008.2 |
| 20260509140903 | 25 | 0 | 1.6 | 1.6 | 0.00 | 0.08 | 0.00 | 93 | 1008.2 |
| 20260509140804 | 25 | 0 | 0.0 | 0.0 | 0.00 | 0.08 | 0.00 | 93 | 1008.1 |
| 20260509140632 | 25 | 0 | 0.0 | 0.0 | 0.00 | 0.08 | 0.00 | 93 | 1008.1 |
| 20260509140531 | 25 | 0 | 0.0 | 1.6 | 0.00 | 0.08 | 0.00 | 93 | 1008.2 |
| 20260509140431 | 25 | 0 | 0.0 | 1.6 | 0.00 | 0.08 | 0.00 | 93 | 1008.2 |
| 20260509140331 | 25 | 0 | 0.0 | 1.6 | 0.00 | 0.08 | 0.00 | 93 | 1008.3 |
| 20260509140230 | 25 | 0 | 0.0 | 1.6 | 0.00 | 0.08 | 0.00 | 93 | 1008.3 |
| 20260509140132 | 25 | 0 | 0.0 | 1.6 | 0.00 | 0.08 | 0.00 | 93 | 1008.3 |
| 20260509140032 | 25 | 0 | 0.0 | 1.6 | 0.00 | 0.08 | 0.00 | 93 | 1008.3 |
| 20260509135931 | 24 | 0 | 0.0 | 1.6 | 0.00 | 0.08 | 0.00 | 93 | 1008.3 |
| 20260509135832 | 24 | 0 | 0.0 | 1.6 | 0.00 | 0.08 | 0.00 | 93 | 1008.2 |
| 20260509135730 | 24 | 0 | 0.0 | 1.6 | 0.00 | 0.08 | 0.00 | 93 | 1008.2 |
| 20260509135632 | 24 | 0 | 0.0 | 1.6 | 0.00 | 0.08 | 0.00 | 93 | 1008.2 |
| 20260509135532 | 24 | 0 | 0.0 | 1.6 | 0.00 | 0.08 | 0.00 | 93 | 1008.3 |
| 20260509135431 | 24 | 0 | 0.0 | 3.2 | 0.00 | 0.08 | 0.00 | 93 | 1008.3 |
| 20260509135330 | 24 | 0 | 0.0 | 3.2 | 0.00 | 0.08 | 0.00 | 93 | 1008.2 |
| 20260509135231 | 24 | 0 | 0.0 | 3.2 | 0.00 | 0.08 | 0.00 | 93 | 1008.4 |
| 20260509135130 | 24 | 0 | 0.0 | 3.2 | 0.00 | 0.08 | 0.00 | 93 | 1008.4 |
| 20260509135031 | 24 | 0 | 0.0 | 3.2 | 0.00 | 0.08 | 0.00 | 93 | 1008.4 |
| 20260509134932 | 24 | 0 | 0.0 | 3.2 | 0.00 | 0.08 | 0.00 | 93 | 1008.5 |
| 20260509134831 | 24 | 0 | 0.0 | 3.2 | 0.00 | 0.08 | 0.00 | 93 | 1008.5 |
| 20260509134732 | 24 | 0 | 0.0 | 3.2 | 0.00 | 0.08 | 0.00 | 93 | 1008.6 |
| 20260509134631 | 24 | 0 | 1.6 | 3.2 | 0.00 | 0.08 | 0.00 | 94 | 1008.6 |
| 20260509134532 | 24 | 0 | 1.6 | 3.2 | 0.00 | 0.08 | 0.00 | 94 | 1008.7 |
| 20260509134432 | 24 | 0 | 0.0 | 1.6 | 0.00 | 0.08 | 0.00 | 94 | 1008.6 |
| 20260509134332 | -17 | 0 | 0.0 | 0.0 | 0.00 | 0.08 | 0.00 | 1008.6 | |
| 20260509134232 | -17 | 0.0 | 0.0 | 0.00 | 0.08 | 0.00 | 1008.5 | ||
| 20260509134132 | -17 | 0.0 | 0.0 | 0.00 | 0.08 | 0.00 | 1008.5 | ||
| 20260509134032 | -17 | 0.0 | 0.0 | 0.00 | 0.08 | 0.00 | 1008.5 | ||
| 20260509133932 | -17 | 0.0 | 0.0 | 0.00 | 0.08 | 0.00 | 1008.7 | ||
| 20260509133833 | -17 | 0.0 | 0.0 | 0.00 | 0.08 | 0.00 | 1008.7 | ||
| 20260509133733 | -17 | 0.0 | 0.0 | 0.00 | 0.08 | 0.00 | 1008.8 | ||
| 20260509133632 | -17 | 0.0 | 0.0 | 0.00 | 0.08 | 0.00 | 1008.8 | ||
| 20260509133532 | -17 | 0.0 | 0.0 | 0.00 | 0.08 | 0.00 | 1008.8 | ||
| 20260509133431 | 24 | 0 | 0.0 | 0.0 | 0.00 | 0.08 | 0.00 | 94 | 1008.9 |
| 20260509133332 | 24 | 0 | 0.0 | 0.0 | 0.00 | 0.08 | 0.00 | 94 | 1009.0 |
| 20260509133231 | 24 | 0 | 0.0 | 1.6 | 0.00 | 0.08 | 0.00 | 94 | 1009.0 |
| 20260509133132 | 24 | 0 | 0.0 | 3.2 | 0.00 | 0.08 | 0.00 | 94 | 1009.0 |
| 20260509133032 | 24 | 0 | 0.0 | 4.8 | 0.00 | 0.08 | 0.00 | 94 | 1009.0 |
| 20260509132931 | 24 | 0 | 0.0 | 4.8 | 0.00 | 0.08 | 0.00 | 94 | 1009.2 |
| 20260509132833 | 24 | 0 | 0.0 | 4.8 | 0.00 | 0.08 | 0.00 | 94 | 1009.2 |
| 20260509132731 | 24 | 0 | 0.0 | 4.8 | 0.00 | 0.08 | 0.00 | 94 | 1009.3 |
| 20260509132632 | 24 | 0 | 0.0 | 4.8 | 0.00 | 0.08 | 0.00 | 94 | 1009.3 |
| 20260509132532 | 24 | 0 | 0.0 | 4.8 | 0.00 | 0.08 | 0.00 | 94 | 1009.4 |
| 20260509132431 | 24 | 0 | 0.0 | 4.8 | 0.00 | 0.08 | 0.00 | 94 | 1009.4 |
| 20260509132332 | 24 | 0 | 1.6 | 4.8 | 0.00 | 0.08 | 0.00 | 94 | 1009.4 |
| 20260509132231 | 24 | 0 | 1.6 | 4.8 | 0.00 | 0.08 | 0.00 | 94 | 1009.5 |
| 20260509132133 | 24 | 0 | 3.2 | 4.8 | 0.00 | 0.08 | 0.00 | 94 | 1009.4 |
| 20260509132031 | 24 | 0 | 3.2 | 4.8 | 0.00 | 0.08 | 0.00 | 94 | 1009.4 |
| 20260509131931 | 24 | 0 | 1.6 | 3.2 | 0.00 | 0.08 | 0.00 | 94 | 1009.5 |
| 20260509131832 | -17 | 0.0 | 0.0 | 0.00 | 0.08 | 0.00 | 1009.5 | ||
| 20260509131732 | -17 | 0.0 | 0.0 | 0.00 | 0.08 | 0.00 | 1009.4 | ||
| 20260509131633 | -17 | 0.0 | 0.0 | 0.00 | 0.08 | 0.00 | 1009.4 | ||
| 20260509131532 | -17 | 0.0 | 0.0 | 0.00 | 0.08 | 0.00 | 1009.4 | ||
| 20260509131433 | -17 | 0.0 | 0.0 | 0.00 | 0.08 | 0.00 | 1009.3 | ||
| 20260509131332 | -17 | 0.0 | 0.0 | 0.00 | 0.08 | 0.00 | 1009.3 | ||
| 20260509131232 | -17 | 0.0 | 0.0 | 0.00 | 0.08 | 0.00 | 1009.2 | ||
| 20260509131131 | -17 | 0.0 | 0.0 | 0.00 | 0.08 | 0.00 | 1009.2 | ||
| 20260509131032 | 24 | 0 | 0.0 | 0.0 | 0.00 | 0.08 | 0.00 | 95 | 1009.3 |
| 20260509130933 | 24 | 0 | 0.0 | 0.0 | 0.00 | 0.08 | 0.00 | 95 | 1009.2 |
| 20260509130832 | 24 | 0 | 0.0 | 0.0 | 0.00 | 0.08 | 0.00 | 95 | 1009.3 |
| 20260509130732 | 24 | 0 | 0.0 | 0.0 | 0.00 | 0.08 | 0.00 | 95 | 1009.3 |
| 20260509130632 | 24 | 0 | 0.0 | 0.0 | 0.00 | 0.08 | 0.00 | 95 | 1009.2 |
| 20260509130533 | 24 | 0 | 0.0 | 0.0 | 0.00 | 0.08 | 0.00 | 95 | 1009.2 |
| 20260509130433 | 24 | 0 | 0.0 | 0.0 | 0.00 | 0.08 | 0.00 | 95 | 1009.2 |
| 20260509130332 | 24 | 0 | 0.0 | 0.0 | 0.00 | 0.08 | 0.00 | 95 | 1009.2 |
| 20260509130233 | 24 | 0 | 0.0 | 1.6 | 0.00 | 0.08 | 0.00 | 95 | 1009.2 |
| 20260509130132 | 24 | 0 | 0.0 | 1.6 | 0.00 | 0.08 | 0.00 | 95 | 1009.1 |
| 20260509130017 | 24 | 0 | 0.0 | 1.6 | 0.00 | 0.08 | 0.00 | 95 | 1009.2 |
| 20260509125917 | 24 | 0 | 0.0 | 1.6 | 0.00 | 0.08 | 0.00 | 95 | 1009.2 |
| 20260509125803 | 24 | 0 | 0.0 | 1.6 | 0.00 | 0.08 | 0.00 | 95 | 1009.3 |
| 20260509125702 | 24 | 0 | 0.0 | 1.6 | 0.00 | 0.08 | 0.00 | 95 | 1009.2 |
| 20260509125603 | 24 | 0 | 0.0 | 1.6 | 0.00 | 0.08 | 0.00 | 95 | 1009.2 |
| 20260509125503 | 24 | 0 | 0.0 | 1.6 | 0.00 | 0.08 | 0.00 | 95 | 1009.2 |
| 20260509125403 | 23 | 0 | 0.0 | 1.6 | 0.00 | 0.08 | 0.00 | 95 | 1009.2 |
| 20260509125307 | 24 | 0 | 1.6 | 1.6 | 0.00 | 0.08 | 0.00 | 95 | 1009.2 |
| 20260509125203 | -17 | 0.0 | 0.0 | 0.00 | 0.08 | 0.00 | 1009.2 | ||
| 20260509125103 | -17 | 0.0 | 0.0 | 0.00 | 0.08 | 0.00 | 1009.1 | ||
| 20260509125004 | -17 | 0.0 | 0.0 | 0.00 | 0.08 | 0.00 | 1009.1 | ||
| 20260509124903 | -17 | 0.0 | 0.0 | 0.00 | 0.08 | 0.00 | 1009.1 | ||
| 20260509124802 | -17 | 0.0 | 0.0 | 0.00 | 0.08 | 0.00 | 1009.1 | ||
| 20260509124703 | -17 | 0.0 | 0.0 | 0.00 | 0.08 | 0.00 | 1009.0 | ||
| 20260509124603 | -17 | 0.0 | 0.0 | 0.00 | 0.08 | 0.00 | 1009.0 | ||
| 20260509124504 | -17 | 0.0 | 0.0 | 0.00 | 0.08 | 0.00 | 1009.0 | ||
| 20260509124403 | -17 | 0.0 | 0.0 | 0.00 | 0.08 | 0.00 | 1009.0 | ||
| 20260509124303 | -17 | 0.0 | 0.0 | 0.00 | 0.08 | 0.00 | 1008.9 | ||
| 20260509124203 | -17 | 0.0 | 0.0 | 0.00 | 0.08 | 0.00 | 1008.9 | ||
| 20260509124104 | -17 | 0.0 | 0.0 | 0.00 | 0.08 | 0.00 | 1008.9 | ||
| 20260509124003 | -17 | 0.0 | 0.0 | 0.00 | 0.08 | 0.00 | 1008.8 | ||
| 20260509123903 | -17 | 0.0 | 0.0 | 0.00 | 0.08 | 0.00 | 1008.9 | ||
| 20260509123803 | -17 | 0.0 | 0.0 | 0.00 | 0.08 | 0.00 | 1008.9 | ||
| 20260509123704 | -17 | 0.0 | 0.0 | 0.00 | 0.08 | 0.00 | 1009.0 | ||
| 20260509123603 | -17 | 0.0 | 0.0 | 0.00 | 0.08 | 0.00 | 1008.9 | ||
| 20260509123504 | -17 | 0.0 | 0.0 | 0.00 | 0.08 | 0.00 | 1009.0 | ||
| 20260509123404 | -17 | 0.0 | 0.0 | 0.00 | 0.08 | 0.00 | 1009.0 | ||
| 20260509123304 | -17 | 0.0 | 0.0 | 0.00 | 0.08 | 0.00 | 1009.0 | ||
| 20260509123203 | -17 | 0.0 | 0.0 | 0.00 | 0.08 | 0.00 | 1009.0 | ||
| 20260509123104 | -17 | 0.0 | 0.0 | 0.00 | 0.08 | 0.00 | 1009.0 | ||
| 20260509123003 | -17 | 0.0 | 0.0 | 0.00 | 0.08 | 0.00 | 1009.0 | ||
| 20260509122903 | -17 | 0.0 | 0.0 | 0.00 | 0.08 | 0.00 | 1008.9 | ||
| 20260509122803 | -17 | 0.0 | 0.0 | 0.00 | 0.08 | 0.00 | 1008.9 | ||
| 20260509122703 | -17 | 0.0 | 0.0 | 0.00 | 0.08 | 0.00 | 1008.9 | ||
| 20260509122603 | -17 | 0.0 | 0.0 | 0.00 | 0.08 | 0.00 | 1008.9 | ||
| 20260509122504 | -17 | 0.0 | 0.0 | 0.00 | 0.08 | 0.00 | 1008.9 | ||
| 20260509122403 | -17 | 0.0 | 0.0 | 0.00 | 0.08 | 0.00 | 1009.0 | ||
| 20260509122306 | -17 | 0.0 | 0.0 | 0.00 | 0.08 | 0.00 | 1008.8 | ||
| 20260509122203 | -17 | 0.0 | 0.0 | 0.00 | 0.08 | 0.00 | 1008.9 | ||
| 20260509122103 | -17 | 0.0 | 0.0 | 0.00 | 0.08 | 0.00 | 1008.9 | ||
| 20260509122004 | -17 | 0.0 | 0.0 | 0.00 | 0.08 | 0.00 | 1009.0 | ||
| 20260509121903 | 23 | 0 | 0.0 | 0.0 | 0.00 | 0.08 | 0.00 | 95 | 1009.0 |
| 20260509121803 | 23 | 0 | 0.0 | 0.0 | 0.00 | 0.08 | 0.00 | 95 | 1008.9 |
| 20260509121703 | 23 | 0 | 0.0 | 0.0 | 0.00 | 0.08 | 0.00 | 95 | 1009.0 |
| 20260509121604 | 23 | 0 | 0.0 | 0.0 | 0.00 | 0.08 | 0.00 | 95 | 1008.9 |
| 20260509121502 | 23 | 0 | 0.0 | 0.0 | 0.00 | 0.08 | 0.00 | 95 | 1008.9 |
| 20260509121403 | 23 | 0 | 0.0 | 0.0 | 0.00 | 0.08 | 0.00 | 95 | 1008.9 |
| 20260509121302 | 23 | 0 | 0.0 | 0.0 | 0.00 | 0.08 | 0.00 | 95 | 1008.9 |
| 20260509121203 | 23 | 0 | 0.0 | 0.0 | 0.00 | 0.08 | 0.00 | 95 | 1008.8 |
| 20260509121101 | 23 | 0 | 0.0 | 0.0 | 0.00 | 0.08 | 0.00 | 95 | 1008.8 |
| 20260509121003 | 23 | 0 | 0.0 | 0.0 | 0.00 | 0.08 | 0.00 | 95 | 1008.8 |
| 20260509120903 | 23 | 0 | 0.0 | 0.0 | 0.00 | 0.08 | 0.00 | 95 | 1008.8 |
| 20260509120803 | 23 | 0 | 0.0 | 0.0 | 0.00 | 0.08 | 0.00 | 95 | 1008.8 |
| 20260509120702 | 23 | 0 | 0.0 | 0.0 | 0.00 | 0.08 | 0.00 | 95 | 1008.8 |
| 20260509120603 | 23 | 0 | 0.0 | 0.0 | 0.00 | 0.08 | 0.00 | 95 | 1008.8 |
| 20260509120502 | 23 | 0 | 0.0 | 0.0 | 0.00 | 0.08 | 0.00 | 95 | 1008.7 |
| 20260509120401 | 23 | 0 | 0.0 | 0.0 | 0.00 | 0.08 | 0.00 | 95 | 1008.7 |
| 20260509120303 | 23 | 0 | 0.0 | 0.0 | 0.00 | 0.08 | 0.00 | 95 | 1008.6 |
| 20260509120201 | 23 | 0 | 0.0 | 0.0 | 0.00 | 0.08 | 0.00 | 95 | 1008.7 |
| 20260509120001 | 23 | 0 | 0.0 | 0.0 | 0.00 | 0.08 | 0.00 | 95 | 1008.6 |
| 20260509115901 | 23 | 0 | 0.0 | 0.0 | 0.00 | 0.08 | 0.00 | 95 | 1008.5 |
| 20260509115803 | 23 | 0 | 0.0 | 0.0 | 0.00 | 0.08 | 0.00 | 95 | 1008.6 |
| 20260509115702 | 23 | 0 | 0.0 | 0.0 | 0.00 | 0.08 | 0.00 | 95 | 1008.6 |
| 20260509115600 | 23 | 0 | 0.0 | 0.0 | 0.00 | 0.08 | 0.00 | 95 | 1008.5 |
| 20260509115500 | 23 | 0 | 0.0 | 0.0 | 0.00 | 0.08 | 0.00 | 95 | 1008.6 |
| 20260509115401 | 23 | 0 | 0.0 | 0.0 | 0.00 | 0.08 | 0.00 | 95 | 1008.6 |
| 20260509115300 | 23 | 0 | 0.0 | 0.0 | 0.00 | 0.08 | 0.00 | 95 | 1008.6 |
| 20260509115159 | 23 | 0 | 0.0 | 0.0 | 0.00 | 0.08 | 0.00 | 95 | 1008.6 |
| 20260509115059 | 23 | 0 | 0.0 | 0.0 | 0.00 | 0.08 | 0.00 | 95 | 1008.6 |
| 20260509115000 | 23 | 0 | 0.0 | 0.0 | 0.00 | 0.08 | 0.00 | 95 | 1008.6 |
| 20260509114859 | 23 | 0 | 0.0 | 0.0 | 0.00 | 0.08 | 0.00 | 95 | 1008.5 |
| 20260509114801 | 23 | 0 | 0.0 | 0.0 | 0.00 | 0.08 | 0.00 | 95 | 1008.5 |
| 20260509114700 | 23 | 0 | 0.0 | 0.0 | 0.00 | 0.08 | 0.00 | 95 | 1008.6 |
| 20260509114601 | 23 | 0 | 0.0 | 0.0 | 0.00 | 0.08 | 0.00 | 95 | 1008.5 |
| 20260509114500 | 23 | 0 | 0.0 | 0.0 | 0.00 | 0.08 | 0.00 | 95 | 1008.6 |
| 20260509114358 | 23 | 0 | 0.0 | 0.0 | 0.00 | 0.08 | 0.00 | 95 | 1008.6 |
| 20260509114257 | 23 | 0 | 0.0 | 0.0 | 0.00 | 0.08 | 0.00 | 95 | 1008.6 |
| 20260509114159 | 23 | 0 | 0.0 | 0.0 | 0.00 | 0.08 | 0.00 | 95 | 1008.6 |
| 20260509114059 | 23 | 0 | 0.0 | 0.0 | 0.00 | 0.08 | 0.00 | 95 | 1008.7 |
| 20260509113958 | 23 | 0 | 0.0 | 0.0 | 0.00 | 0.08 | 0.00 | 95 | 1008.7 |
| 20260509113858 | 23 | 0 | 0.0 | 0.0 | 0.00 | 0.08 | 0.00 | 95 | 1008.9 |
| 20260509113757 | 23 | 0 | 0.0 | 0.0 | 0.00 | 0.08 | 0.00 | 95 | 1008.8 |
| 20260509113658 | 23 | 0 | 0.0 | 0.0 | 0.00 | 0.08 | 0.00 | 95 | 1008.9 |
| 20260509113557 | 23 | 0 | 0.0 | 0.0 | 0.00 | 0.08 | 0.00 | 95 | 1009.0 |
| 20260509113457 | 23 | 0 | 0.0 | 0.0 | 0.00 | 0.08 | 0.00 | 95 | 1009.0 |
| 20260509113357 | 23 | 0 | 0.0 | 0.0 | 0.00 | 0.08 | 0.00 | 95 | 1009.1 |
| 20260509113258 | 23 | 0 | 0.0 | 0.0 | 0.00 | 0.08 | 0.00 | 95 | 1009.1 |
| 20260509113156 | 23 | 0 | 0.0 | 0.0 | 0.00 | 0.08 | 0.00 | 95 | 1009.2 |
| 20260509113057 | 23 | 0 | 0.0 | 0.0 | 0.00 | 0.08 | 0.00 | 95 | 1009.2 |
| 20260509112956 | 23 | 0 | 0.0 | 0.0 | 0.00 | 0.08 | 0.00 | 95 | 1009.1 |
| 20260509112857 | 23 | 0 | 0.0 | 0.0 | 0.00 | 0.08 | 0.00 | 95 | 1009.1 |
| 20260509112756 | 23 | 0 | 0.0 | 0.0 | 0.00 | 0.08 | 0.00 | 95 | 1009.1 |
| 20260509112657 | 23 | 0 | 0.0 | 0.0 | 0.00 | 0.08 | 0.00 | 95 | 1009.1 |
| 20260509112556 | 23 | 0 | 0.0 | 0.0 | 0.00 | 0.08 | 0.00 | 95 | 1009.1 |
| 20260509112456 | 23 | 0 | 0.0 | 0.0 | 0.00 | 0.08 | 0.00 | 95 | 1009.0 |
| 20260509112357 | 23 | 0 | 0.0 | 0.0 | 0.00 | 0.08 | 0.00 | 95 | 1009.0 |
| 20260509112254 | 23 | 0 | 0.0 | 0.0 | 0.00 | 0.08 | 0.00 | 95 | 1009.0 |
| 20260509112156 | 23 | 0 | 0.0 | 0.0 | 0.00 | 0.08 | 0.00 | 95 | 1009.0 |
| 20260509112055 | 23 | 0 | 0.0 | 0.0 | 0.00 | 0.08 | 0.00 | 95 | 1009.0 |
| 20260509111957 | 23 | 0 | 0.0 | 0.0 | 0.00 | 0.08 | 0.00 | 95 | 1009.0 |
| 20260509111854 | 23 | 0 | 0.0 | 0.0 | 0.00 | 0.08 | 0.00 | 95 | 1009.0 |
| 20260509111754 | 23 | 0 | 0.0 | 0.0 | 0.00 | 0.08 | 0.00 | 95 | 1008.9 |
| 20260509111633 | 23 | 0 | 0.0 | 0.0 | 0.00 | 0.08 | 0.00 | 95 | 1008.8 |
| 20260509111532 | 23 | 0 | 0.0 | 0.0 | 0.00 | 0.08 | 0.00 | 95 | 1008.8 |
| 20260509111405 | 23 | 0 | 0.0 | 0.0 | 0.00 | 0.08 | 0.00 | 95 | 1008.8 |
| 20260509111303 | 23 | 0 | 0.0 | 0.0 | 0.00 | 0.08 | 0.00 | 95 | 1008.8 |
| 20260509111205 | 23 | 0 | 0.0 | 0.0 | 0.00 | 0.08 | 0.00 | 95 | 1008.8 |
| 20260509111102 | 23 | 0 | 0.0 | 0.0 | 0.00 | 0.08 | 0.00 | 95 | 1008.7 |
| 20260509111003 | 23 | 0 | 0.0 | 0.0 | 0.00 | 0.08 | 0.00 | 95 | 1008.8 |
| 20260509110904 | 23 | 0 | 0.0 | 0.0 | 0.00 | 0.08 | 0.00 | 95 | 1008.8 |
| 20260509110803 | 23 | 0 | 0.0 | 0.0 | 0.00 | 0.08 | 0.00 | 95 | 1008.8 |
| 20260509110703 | 23 | 0 | 0.0 | 0.0 | 0.00 | 0.08 | 0.00 | 95 | 1008.8 |
| 20260509110603 | 23 | 0 | 0.0 | 0.0 | 0.00 | 0.08 | 0.00 | 95 | 1008.8 |
| 20260509110504 | 23 | 0 | 0.0 | 0.0 | 0.00 | 0.08 | 0.00 | 95 | 1008.7 |
| 20260509110403 | 23 | 0 | 0.0 | 0.0 | 0.00 | 0.08 | 0.00 | 95 | 1008.7 |
| 20260509110303 | 23 | 0 | 0.0 | 0.0 | 0.00 | 0.08 | 0.00 | 95 | 1008.7 |
| 20260509110204 | 23 | 0 | 0.0 | 0.0 | 0.00 | 0.08 | 0.00 | 95 | 1008.8 |
| 20260509110103 | 23 | 0 | 0.0 | 0.0 | 0.00 | 0.08 | 0.00 | 95 | 1008.7 |
| 20260509110002 | 23 | 0 | 0.0 | 0.0 | 0.00 | 0.08 | 0.00 | 95 | 1008.6 |
| 20260509105903 | 23 | 0 | 0.0 | 0.0 | 0.00 | 0.08 | 0.00 | 95 | 1008.6 |
| 20260509105803 | 23 | 0 | 0.0 | 0.0 | 0.00 | 0.08 | 0.00 | 95 | 1008.6 |
| 20260509105704 | 23 | 0 | 0.0 | 0.0 | 0.00 | 0.08 | 0.00 | 95 | 1008.5 |
| 20260509105604 | 23 | 0 | 0.0 | 0.0 | 0.00 | 0.08 | 0.00 | 95 | 1008.4 |
| 20260509105458 | 23 | 0 | 0.0 | 0.0 | 0.00 | 0.08 | 0.00 | 95 | 1008.4 |
| 20260509105355 | 23 | 0 | 0.0 | 0.0 | 0.00 | 0.08 | 0.00 | 95 | 1008.4 |
| 20260509105251 | -17 | 0.0 | 0.0 | 0.00 | 0.08 | 0.00 | 1008.4 | ||
| 20260509105152 | -17 | 0.0 | 0.0 | 0.00 | 0.08 | 0.00 | 1008.3 | ||
| 20260509105051 | -17 | 0.0 | 0.0 | 0.00 | 0.08 | 0.00 | 1008.3 | ||
| 20260509104950 | -17 | 0.0 | 0.0 | 0.00 | 0.08 | 0.00 | 1008.3 | ||
| 20260509104851 | -17 | 0.0 | 0.0 | 0.00 | 0.08 | 0.00 | 1008.3 | ||
| 20260509104749 | -17 | 0.0 | 0.0 | 0.00 | 0.08 | 0.00 | 1008.2 | ||
| 20260509104651 | -17 | 0.0 | 0.0 | 0.00 | 0.08 | 0.00 | 1008.2 | ||
| 20260509104548 | -17 | 0.0 | 0.0 | 0.00 | 0.08 | 0.00 | 1008.2 | ||
| 20260509104448 | -17 | 0.0 | 0.0 | 0.00 | 0.08 | 0.00 | 1008.1 | ||
| 20260509104348 | -17 | 0.0 | 0.0 | 0.00 | 0.08 | 0.00 | 1008.1 | ||
| 20260509104249 | -17 | 0.0 | 0.0 | 0.00 | 0.08 | 0.00 | 1008.1 | ||
| 20260509104148 | -17 | 0.0 | 0.0 | 0.00 | 0.08 | 0.00 | 1008.0 | ||
| 20260509104046 | -17 | 0.0 | 0.0 | 0.00 | 0.08 | 0.00 | 1008.1 | ||
| 20260509103946 | -17 | 0.0 | 0.0 | 0.00 | 0.08 | 0.00 | 1008.1 | ||
| 20260509103846 | -17 | 0.0 | 0.0 | 0.00 | 0.08 | 0.00 | 1008.1 | ||
| 20260509103746 | -17 | 0.0 | 0.0 | 0.00 | 0.08 | 0.00 | 1008.1 | ||
| 20260509103646 | -17 | 0.0 | 0.0 | 0.00 | 0.08 | 0.00 | 1008.0 | ||
| 20260509103546 | -17 | 0.0 | 0.0 | 0.00 | 0.08 | 0.00 | 1008.1 | ||
| 20260509103444 | -17 | 0.0 | 0.0 | 0.00 | 0.08 | 0.00 | 1008.1 | ||
| 20260509103345 | -17 | 0.0 | 0.0 | 0.00 | 0.08 | 0.00 | 1008.3 | ||
| 20260509103244 | -17 | 0.0 | 0.0 | 0.00 | 0.08 | 0.00 | 1008.3 | ||
| 20260509103145 | -17 | 0.0 | 0.0 | 0.00 | 0.08 | 0.00 | 1008.3 | ||
| 20260509103042 | -17 | 0.0 | 0.0 | 0.00 | 0.08 | 0.00 | 1008.3 | ||
| 20260509102943 | -17 | 0.0 | 0.0 | 0.00 | 0.08 | 0.00 | 1008.3 | ||
| 20260509102842 | -17 | 0.0 | 0.0 | 0.00 | 0.08 | 0.00 | 1008.3 | ||
| 20260509102742 | -17 | 0.0 | 0.0 | 0.00 | 0.08 | 0.00 | 1008.3 | ||
| 20260509102642 | -17 | 0.0 | 0.0 | 0.00 | 0.08 | 0.00 | 1008.3 | ||
| 20260509102540 | -17 | 0.0 | 0.0 | 0.00 | 0.08 | 0.00 | 1008.2 | ||
| 20260509102442 | -17 | 0.0 | 0.0 | 0.00 | 0.08 | 0.00 | 1008.2 | ||
| 20260509102341 | -17 | 0.0 | 0.0 | 0.00 | 0.08 | 0.00 | 1008.2 | ||
| 20260509102240 | -17 | 0.0 | 0.0 | 0.00 | 0.08 | 0.00 | 1008.1 | ||
| 20260509102141 | -17 | 0.0 | 0.0 | 0.00 | 0.08 | 0.00 | 1008.0 | ||
| 20260509102039 | -17 | 0.0 | 0.0 | 0.00 | 0.08 | 0.00 | 1008.0 | ||
| 20260509101938 | -17 | 0.0 | 0.0 | 0.00 | 0.08 | 0.00 | 1008.1 | ||
| 20260509101839 | -17 | 0.0 | 0.0 | 0.00 | 0.08 | 0.00 | 1008.0 | ||
| 20260509101738 | -17 | 0.0 | 0.0 | 0.00 | 0.08 | 0.00 | 1008.0 | ||
| 20260509101639 | -17 | 0.0 | 0.0 | 0.00 | 0.08 | 0.00 | 1008.1 | ||
| 20260509101537 | -17 | 0.0 | 0.0 | 0.00 | 0.08 | 0.00 | 1008.1 | ||
| 20260509101438 | -17 | 0.0 | 0.0 | 0.00 | 0.08 | 0.00 | 1008.1 | ||
| 20260509101337 | -17 | 0.0 | 0.0 | 0.00 | 0.08 | 0.00 | 1008.2 | ||
| 20260509101231 | -17 | 0.0 | 0.0 | 0.00 | 0.08 | 0.00 | 1008.1 | ||
| 20260509101132 | -17 | 0.0 | 0.0 | 0.00 | 0.08 | 0.00 | 1008.1 | ||
| 20260509101032 | -17 | 0.0 | 0.0 | 0.00 | 0.08 | 0.00 | 1008.1 | ||
| 20260509100932 | -17 | 0.0 | 0.0 | 0.00 | 0.08 | 0.00 | 1008.1 | ||
| 20260509100831 | -17 | 0.0 | 0.0 | 0.00 | 0.08 | 0.00 | 1008.1 | ||
| 20260509100732 | -17 | 0.0 | 0.0 | 0.00 | 0.08 | 0.00 | 1008.2 | ||
| 20260509100632 | -17 | 0.0 | 0.0 | 0.00 | 0.08 | 0.00 | 1008.2 | ||
| 20260509100532 | -17 | 0.0 | 0.0 | 0.00 | 0.08 | 0.00 | 1008.2 | ||
| 20260509100432 | -17 | 0.0 | 0.0 | 0.00 | 0.08 | 0.00 | 1008.2 | ||
| 20260509100332 | -17 | 0.0 | 0.0 | 0.00 | 0.08 | 0.00 | 1008.1 | ||
| 20260509100233 | -17 | 0.0 | 0.0 | 0.00 | 0.08 | 0.00 | 1008.1 | ||
| 20260509100131 | -17 | 0.0 | 0.0 | 0.00 | 0.08 | 0.00 | 1008.0 | ||
| 20260509100032 | -17 | 0.0 | 0.0 | 0.00 | 0.08 | 0.00 | 1008.1 | ||
| 20260509095931 | -17 | 0.0 | 0.0 | 0.00 | 0.08 | 0.00 | 1008.2 | ||
| 20260509095831 | -17 | 0.0 | 0.0 | 0.00 | 0.08 | 0.00 | 1008.1 | ||
| 20260509095731 | -17 | 0.0 | 0.0 | 0.00 | 0.08 | 0.00 | 1008.1 | ||
| 20260509095631 | -17 | 0.0 | 0.0 | 0.00 | 0.08 | 0.00 | 1008.1 | ||
| 20260509095530 | -17 | 0.0 | 0.0 | 0.00 | 0.08 | 0.00 | 1008.0 | ||
| 20260509095429 | -17 | 0.0 | 0.0 | 0.00 | 0.08 | 0.00 | 1008.0 | ||
| 20260509095329 | -17 | 0.0 | 0.0 | 0.00 | 0.08 | 0.00 | 1008.0 | ||
| 20260509095229 | -17 | 0.0 | 0.0 | 0.00 | 0.08 | 0.00 | 1008.0 | ||
| 20260509095129 | -17 | 0.0 | 0.0 | 0.00 | 0.08 | 0.00 | 1008.0 | ||
| 20260509095028 | -17 | 0.0 | 0.0 | 0.00 | 0.08 | 0.00 | 1008.0 | ||
| 20260509094927 | -17 | 0.0 | 0.0 | 0.00 | 0.08 | 0.00 | 1008.0 | ||
| 20260509094828 | -17 | 0.0 | 0.0 | 0.00 | 0.08 | 0.00 | 1008.1 | ||
| 20260509094727 | -17 | 0.0 | 0.0 | 0.00 | 0.08 | 0.00 | 1008.2 | ||
| 20260509094629 | -17 | 0.0 | 0.0 | 0.00 | 0.08 | 0.00 | 1008.1 | ||
| 20260509094525 | -17 | 0.0 | 0.0 | 0.00 | 0.08 | 0.00 | 1008.2 | ||
| 20260509094425 | -17 | 0.0 | 0.0 | 0.00 | 0.08 | 0.00 | 1008.1 | ||
| 20260509094325 | -17 | 0.0 | 0.0 | 0.00 | 0.08 | 0.00 | 1008.1 | ||
| 20260509094226 | -17 | 0.0 | 0.0 | 0.00 | 0.08 | 0.00 | 1008.0 | ||
| 20260509094125 | -17 | 0.0 | 0.0 | 0.00 | 0.08 | 0.00 | 1007.9 | ||
| 20260509094023 | -17 | 0.0 | 0.0 | 0.00 | 0.08 | 0.00 | 1007.9 | ||
| 20260509093925 | -17 | 0.0 | 0.0 | 0.00 | 0.08 | 0.00 | 1007.9 | ||
| 20260509093824 | -17 | 0.0 | 0.0 | 0.00 | 0.08 | 0.00 | 1007.8 | ||
| 20260509093723 | -17 | 0.0 | 0.0 | 0.00 | 0.08 | 0.00 | 1007.8 | ||
| 20260509093624 | -17 | 0.0 | 0.0 | 0.00 | 0.08 | 0.00 | 1007.9 | ||
| 20260509093522 | -17 | 0.0 | 0.0 | 0.00 | 0.08 | 0.00 | 1007.9 | ||
| 20260509093422 | -17 | 0.0 | 0.0 | 0.00 | 0.08 | 0.00 | 1007.9 | ||
| 20260509093322 | -17 | 0.0 | 0.0 | 0.00 | 0.08 | 0.00 | 1008.0 | ||
| 20260509093222 | -17 | 0.0 | 0.0 | 0.00 | 0.08 | 0.00 | 1008.0 | ||
| 20260509093123 | -17 | 0.0 | 0.0 | 0.00 | 0.08 | 0.00 | 1008.0 | ||
| 20260509093020 | -17 | 0.0 | 0.0 | 0.00 | 0.08 | 0.00 | 1008.0 | ||
| 20260509092920 | 23 | 0 | 0.0 | 0.0 | 0.00 | 0.08 | 0.00 | 95 | 1008.1 |
| 20260509092820 | 23 | 0 | 0.0 | 0.0 | 0.00 | 0.08 | 0.00 | 95 | 1008.1 |
| 20260509092720 | 23 | 0 | 0.0 | 0.0 | 0.00 | 0.08 | 0.00 | 95 | 1008.1 |
| 20260509092620 | 23 | 0 | 0.0 | 0.0 | 0.00 | 0.08 | 0.00 | 95 | 1008.1 |
| 20260509092504 | 23 | 0 | 0.0 | 0.0 | 0.00 | 0.08 | 0.00 | 95 | 1007.9 |
| 20260509092403 | 23 | 0 | 0.0 | 0.0 | 0.00 | 0.08 | 0.00 | 95 | 1007.9 |
| 20260509092305 | 23 | 0 | 0.0 | 0.0 | 0.00 | 0.08 | 0.00 | 95 | 1007.9 |
| 20260509092203 | 23 | 0 | 0.0 | 0.0 | 0.00 | 0.08 | 0.00 | 95 | 1008.0 |
| 20260509092103 | 23 | 0 | 0.0 | 0.0 | 0.00 | 0.08 | 0.00 | 95 | 1008.0 |
| 20260509092003 | 23 | 0 | 0.0 | 0.0 | 0.00 | 0.08 | 0.00 | 95 | 1008.1 |
| 20260509091902 | 23 | 0 | 0.0 | 0.0 | 0.00 | 0.08 | 0.00 | 95 | 1008.2 |
| 20260509091804 | 23 | 0 | 0.0 | 0.0 | 0.00 | 0.08 | 0.00 | 95 | 1008.2 |
| 20260509091704 | 23 | 0 | 0.0 | 0.0 | 0.00 | 0.08 | 0.00 | 95 | 1008.1 |
| 20260509091602 | 23 | 0 | 0.0 | 0.0 | 0.00 | 0.08 | 0.00 | 95 | 1008.1 |
| 20260509091503 | 23 | 0 | 0.0 | 0.0 | 0.00 | 0.08 | 0.00 | 95 | 1008.1 |
| 20260509091402 | 23 | 0 | 0.0 | 0.0 | 0.00 | 0.08 | 0.00 | 95 | 1008.2 |
| 20260509091302 | -17 | 0 | 0.0 | 0.0 | 0.00 | 0.08 | 0.00 | 1008.2 | |
| 20260509091204 | -17 | 0.0 | 0.0 | 0.00 | 0.08 | 0.00 | 1008.2 | ||
| 20260509091103 | -17 | 0.0 | 0.0 | 0.00 | 0.08 | 0.00 | 1008.2 | ||
| 20260509091004 | -17 | 0.0 | 0.0 | 0.00 | 0.08 | 0.00 | 1008.2 | ||
| 20260509090903 | -17 | 0.0 | 0.0 | 0.00 | 0.08 | 0.00 | 1008.3 | ||
| 20260509090803 | -17 | 0.0 | 0.0 | 0.00 | 0.08 | 0.00 | 1008.3 | ||
| 20260509090702 | -17 | 0.0 | 0.0 | 0.00 | 0.08 | 0.00 | 1008.3 | ||
| 20260509090603 | -17 | 0.0 | 0.0 | 0.00 | 0.08 | 0.00 | 1008.2 | ||
| 20260509090503 | -17 | 0.0 | 0.0 | 0.00 | 0.08 | 0.00 | 1008.2 | ||
| 20260509090403 | 23 | 0 | 0.0 | 0.0 | 0.00 | 0.08 | 0.00 | 94 | 1008.2 |
| 20260509090303 | 23 | 0 | 0.0 | 0.0 | 0.00 | 0.08 | 0.00 | 94 | 1008.1 |
| 20260509090203 | 23 | 0 | 0.0 | 0.0 | 0.00 | 0.08 | 0.00 | 94 | 1008.2 |
| 20260509090004 | 23 | 0 | 0.0 | 0.0 | 0.00 | 0.08 | 0.00 | 94 | 1008.2 |
| 20260509085903 | 23 | 0 | 0.0 | 0.0 | 0.00 | 0.08 | 0.00 | 94 | 1008.2 |
| 20260509085803 | 23 | 0 | 0.0 | 0.0 | 0.00 | 0.08 | 0.00 | 94 | 1008.2 |
| 20260509085703 | 23 | 0 | 0.0 | 0.0 | 0.00 | 0.08 | 0.00 | 94 | 1008.2 |
| 20260509085603 | 23 | 0 | 0.0 | 0.0 | 0.00 | 0.08 | 0.00 | 94 | 1008.2 |
| 20260509085502 | 23 | 0 | 0.0 | 0.0 | 0.00 | 0.08 | 0.00 | 94 | 1008.2 |
| 20260509085403 | 23 | 0 | 0.0 | 0.0 | 0.00 | 0.08 | 0.00 | 94 | 1008.3 |
| 20260509085306 | 23 | 0 | 0.0 | 0.0 | 0.00 | 0.08 | 0.00 | 94 | 1008.3 |
| 20260509085203 | 23 | 0 | 0.0 | 0.0 | 0.00 | 0.08 | 0.00 | 94 | 1008.2 |
| 20260509085104 | 23 | 0 | 0.0 | 0.0 | 0.00 | 0.08 | 0.00 | 94 | 1008.2 |
| 20260509085003 | 23 | 0 | 0.0 | 0.0 | 0.00 | 0.08 | 0.00 | 94 | 1008.1 |
| 20260509084903 | 23 | 0 | 0.0 | 0.0 | 0.00 | 0.08 | 0.00 | 94 | 1008.0 |
| 20260509084803 | 23 | 0 | 0.0 | 0.0 | 0.00 | 0.08 | 0.00 | 94 | 1008.0 |
| 20260509084703 | 23 | 0 | 0.0 | 0.0 | 0.00 | 0.08 | 0.00 | 94 | 1008.0 |
| 20260509084603 | 23 | 0 | 0.0 | 0.0 | 0.00 | 0.08 | 0.00 | 94 | 1007.9 |
| 20260509084504 | 23 | 0 | 0.0 | 0.0 | 0.00 | 0.08 | 0.00 | 94 | 1007.9 |
| 20260509084403 | 23 | 0 | 0.0 | 0.0 | 0.00 | 0.08 | 0.00 | 94 | 1008.1 |
| 20260509084303 | 23 | 0 | 0.0 | 0.0 | 0.00 | 0.08 | 0.00 | 94 | 1008.0 |
| 20260509084203 | 23 | 0 | 0.0 | 0.0 | 0.00 | 0.08 | 0.00 | 94 | 1008.0 |
| 20260509084103 | 23 | 0 | 0.0 | 0.0 | 0.00 | 0.08 | 0.00 | 94 | 1008.0 |
| 20260509084003 | 23 | 0 | 0.0 | 0.0 | 0.00 | 0.08 | 0.00 | 94 | 1008.0 |
| 20260509083903 | 23 | 0 | 0.0 | 0.0 | 0.00 | 0.08 | 0.00 | 94 | 1008.0 |
| 20260509083803 | 23 | 0 | 0.0 | 0.0 | 0.00 | 0.08 | 0.00 | 94 | 1007.9 |
| 20260509083704 | 23 | 0 | 0.0 | 0.0 | 0.00 | 0.08 | 0.00 | 94 | 1007.9 |
| 20260509083603 | 23 | 0 | 0.0 | 0.0 | 0.00 | 0.08 | 0.00 | 94 | 1007.9 |
| 20260509083504 | 23 | 0 | 0.0 | 0.0 | 0.00 | 0.08 | 0.00 | 94 | 1007.9 |
| 20260509083403 | 23 | 0 | 0.0 | 0.0 | 0.00 | 0.08 | 0.00 | 94 | 1007.9 |
| 20260509083303 | -17 | 0.0 | 0.0 | 0.00 | 0.08 | 0.00 | 1007.9 | ||
| 20260509083203 | -17 | 0.0 | 0.0 | 0.00 | 0.08 | 0.00 | 1007.9 | ||
| 20260509083103 | -17 | 0.0 | 0.0 | 0.00 | 0.08 | 0.00 | 1007.9 | ||
| 20260509083004 | -17 | 0.0 | 0.0 | 0.00 | 0.08 | 0.00 | 1007.8 | ||
| 20260509082903 | -17 | 0.0 | 0.0 | 0.00 | 0.08 | 0.00 | 1007.8 | ||
| 20260509082804 | -17 | 0.0 | 0.0 | 0.00 | 0.08 | 0.00 | 1007.9 | ||
| 20260509082703 | -17 | 0.0 | 0.0 | 0.00 | 0.08 | 0.00 | 1007.8 | ||
| 20260509082603 | -17 | 0.0 | 0.0 | 0.00 | 0.08 | 0.00 | 1007.8 | ||
| 20260509082503 | -17 | 0.0 | 0.0 | 0.00 | 0.08 | 0.00 | 1007.9 | ||
| 20260509082403 | -17 | 0.0 | 0.0 | 0.00 | 0.08 | 0.00 | 1007.9 | ||
| 20260509082306 | -17 | 0.0 | 0.0 | 0.00 | 0.08 | 0.00 | 1008.0 | ||
| 20260509082203 | -17 | 0.0 | 0.0 | 0.00 | 0.08 | 0.00 | 1008.1 | ||
| 20260509082104 | -17 | 0.0 | 0.0 | 0.00 | 0.08 | 0.00 | 1008.1 | ||
| 20260509082004 | -17 | 0.0 | 0.0 | 0.00 | 0.08 | 0.00 | 1008.2 | ||
| 20260509081903 | -17 | 0.0 | 0.0 | 0.00 | 0.08 | 0.00 | 1008.2 | ||
| 20260509081803 | -17 | 0.0 | 0.0 | 0.00 | 0.08 | 0.00 | 1008.3 | ||
| 20260509081704 | -17 | 0.0 | 0.0 | 0.00 | 0.08 | 0.00 | 1008.1 | ||
| 20260509081603 | -17 | 0.0 | 0.0 | 0.00 | 0.08 | 0.00 | 1008.3 | ||
| 20260509081502 | -17 | 0.0 | 0.0 | 0.00 | 0.08 | 0.00 | 1008.3 | ||
| 20260509081403 | -17 | 0.0 | 0.0 | 0.00 | 0.08 | 0.00 | 1008.3 | ||
| 20260509081303 | -17 | 0.0 | 0.0 | 0.00 | 0.08 | 0.00 | 1008.3 | ||
| 20260509081203 | -17 | 0.0 | 0.0 | 0.00 | 0.08 | 0.00 | 1008.2 | ||
| 20260509081101 | -17 | 0.0 | 0.0 | 0.00 | 0.08 | 0.00 | 1008.2 | ||
| 20260509081001 | -17 | 0.0 | 0.0 | 0.00 | 0.08 | 0.00 | 1008.1 | ||
| 20260509080901 | -17 | 0.0 | 0.0 | 0.00 | 0.08 | 0.00 | 1008.2 | ||
| 20260509080800 | -17 | 0.0 | 0.0 | 0.00 | 0.08 | 0.00 | 1008.1 | ||
| 20260509080702 | -17 | 0.0 | 0.0 | 0.00 | 0.08 | 0.00 | 1008.0 | ||
| 20260509080600 | -17 | 0.0 | 0.0 | 0.00 | 0.08 | 0.00 | 1007.9 | ||
| 20260509080459 | -17 | 0.0 | 0.0 | 0.00 | 0.08 | 0.00 | 1007.9 | ||
| 20260509080400 | -17 | 0.0 | 0.0 | 0.00 | 0.08 | 0.00 | 1007.9 | ||
| 20260509080300 | -17 | 0.0 | 0.0 | 0.00 | 0.08 | 0.00 | 1007.9 | ||
| 20260509080200 | -17 | 0.0 | 0.0 | 0.00 | 0.08 | 0.00 | 1007.9 | ||
| 20260509080057 | -17 | 0.0 | 0.0 | 0.00 | 0.08 | 0.00 | 1007.9 | ||
| 20260509075957 | -17 | 0.0 | 0.0 | 0.00 | 0.08 | 0.00 | 1008.0 | ||
| 20260509075858 | -17 | 0.0 | 0.0 | 0.00 | 0.08 | 0.00 | 1008.0 | ||
| 20260509075757 | -17 | 0.0 | 0.0 | 0.00 | 0.08 | 0.00 | 1008.0 | ||
| 20260509075632 | -17 | 0.0 | 0.0 | 0.00 | 0.08 | 0.00 | 1008.0 | ||
| 20260509075531 | -17 | 0.0 | 0.0 | 0.00 | 0.08 | 0.00 | 1008.1 | ||
| 20260509075432 | -17 | 0.0 | 0.0 | 0.00 | 0.08 | 0.00 | 1008.1 | ||
| 20260509075332 | -17 | 0.0 | 0.0 | 0.00 | 0.08 | 0.00 | 1008.0 | ||
| 20260509075232 | -17 | 0.0 | 0.0 | 0.00 | 0.08 | 0.00 | 1008.1 | ||
| 20260509075133 | -17 | 0.0 | 0.0 | 0.00 | 0.08 | 0.00 | 1008.1 | ||
| 20260509075005 | -17 | 0.0 | 0.0 | 0.00 | 0.08 | 0.00 | 1008.1 | ||
| 20260509074903 | -17 | 0.0 | 0.0 | 0.00 | 0.08 | 0.00 | 1008.1 | ||
| 20260509074803 | -17 | 0.0 | 0.0 | 0.00 | 0.08 | 0.00 | 1008.1 | ||
| 20260509074654 | -17 | 0.0 | 0.0 | 0.00 | 0.08 | 0.00 | 1008.0 | ||
| 20260509074551 | -17 | 0.0 | 0.0 | 0.00 | 0.08 | 0.00 | 1008.0 | ||
| 20260509074451 | -17 | 0.0 | 0.0 | 0.00 | 0.08 | 0.00 | 1008.0 | ||
| 20260509074352 | -17 | 0.0 | 0.0 | 0.00 | 0.08 | 0.00 | 1008.0 | ||
| 20260509074252 | -17 | 0.0 | 0.0 | 0.00 | 0.08 | 0.00 | 1008.0 | ||
| 20260509074151 | -17 | 0.0 | 0.0 | 0.00 | 0.08 | 0.00 | 1008.1 | ||
| 20260509074050 | -17 | 0.0 | 0.0 | 0.00 | 0.08 | 0.00 | 1008.0 | ||
| 20260509073951 | -17 | 0.0 | 0.0 | 0.00 | 0.08 | 0.00 | 1008.1 | ||
| 20260509073850 | -17 | 0.0 | 0.0 | 0.00 | 0.08 | 0.00 | 1008.2 | ||
| 20260509073751 | -17 | 0.0 | 0.0 | 0.00 | 0.08 | 0.00 | 1008.3 | ||
| 20260509073650 | -17 | 0.0 | 0.0 | 0.00 | 0.08 | 0.00 | 1008.3 | ||
| 20260509073548 | -17 | 0.0 | 0.0 | 0.00 | 0.08 | 0.00 | 1008.3 | ||
| 20260509073448 | -17 | 0.0 | 0.0 | 0.00 | 0.08 | 0.00 | 1008.3 | ||
| 20260509073348 | -17 | 0.0 | 0.0 | 0.00 | 0.08 | 0.00 | 1008.4 | ||
| 20260509073249 | -17 | 0.0 | 0.0 | 0.00 | 0.08 | 0.00 | 1008.4 | ||
| 20260509073148 | -17 | 0.0 | 0.0 | 0.00 | 0.08 | 0.00 | 1008.5 | ||
| 20260509073046 | -17 | 0.0 | 0.0 | 0.00 | 0.08 | 0.00 | 1008.5 | ||
| 20260509072947 | 24 | 0 | 0.0 | 0.0 | 0.00 | 0.08 | 0.00 | 94 | 1008.5 |
| 20260509072846 | 24 | 0 | 0.0 | 0.0 | 0.00 | 0.08 | 0.00 | 94 | 1008.5 |
| 20260509072746 | 24 | 0 | 0.0 | 0.0 | 0.00 | 0.08 | 0.00 | 94 | 1008.5 |
| 20260509072646 | 24 | 0 | 0.0 | 1.6 | 0.00 | 0.08 | 0.00 | 94 | 1008.4 |
| 20260509072545 | 24 | 0 | 0.0 | 1.6 | 0.00 | 0.08 | 0.00 | 94 | 1008.4 |
| 20260509072344 | 24 | 0 | 0.0 | 1.6 | 0.00 | 0.08 | 0.00 | 94 | 1008.4 |
| 20260509072244 | 24 | 0 | 0.0 | 1.6 | 0.00 | 0.08 | 0.00 | 94 | 1008.4 |
| 20260509072144 | 24 | 0 | 0.0 | 1.6 | 0.00 | 0.08 | 0.00 | 94 | 1008.5 |
| 20260509072045 | 24 | 0 | 0.0 | 1.6 | 0.00 | 0.08 | 0.00 | 94 | 1008.5 |
| 20260509071946 | 24 | 0 | 0.0 | 1.6 | 0.00 | 0.08 | 0.00 | 94 | 1008.5 |
| 20260509071845 | 24 | 0 | 0.0 | 1.6 | 0.00 | 0.08 | 0.00 | 94 | 1008.5 |
| 20260509071744 | 24 | 0 | 0.0 | 1.6 | 0.00 | 0.08 | 0.00 | 94 | 1008.5 |
| 20260509071643 | 24 | 0 | 0.0 | 1.6 | 0.00 | 0.08 | 0.00 | 94 | 1008.5 |
| 20260509071544 | 24 | 0 | 1.6 | 1.6 | 0.00 | 0.08 | 0.00 | 93 | 1008.6 |
| 20260509071445 | -17 | 0.0 | 0.0 | 0.00 | 0.08 | 0.00 | 1008.6 | ||
| 20260509071344 | -17 | 0.0 | 0.0 | 0.00 | 0.08 | 0.00 | 1008.5 | ||
| 20260509071243 | -17 | 0.0 | 0.0 | 0.00 | 0.08 | 0.00 | 1008.6 | ||
| 20260509071142 | -17 | 0.0 | 0.0 | 0.00 | 0.08 | 0.00 | 1008.6 | ||
| 20260509071042 | -17 | 0.0 | 0.0 | 0.00 | 0.08 | 0.00 | 1008.6 | ||
| 20260509070942 | -17 | 0.0 | 0.0 | 0.00 | 0.08 | 0.00 | 1008.6 | ||
| 20260509070842 | -17 | 0.0 | 0.0 | 0.00 | 0.08 | 0.00 | 1008.7 | ||
| 20260509070741 | -17 | 0.0 | 0.0 | 0.00 | 0.08 | 0.00 | 1008.6 | ||
| 20260509070641 | -17 | 0.0 | 0.0 | 0.00 | 0.08 | 0.00 | 1008.6 | ||
| 20260509070540 | -17 | 0.0 | 0.0 | 0.00 | 0.08 | 0.00 | 1008.6 | ||
| 20260509070440 | -17 | 0.0 | 0.0 | 0.00 | 0.08 | 0.00 | 1008.6 | ||
| 20260509070341 | -17 | 0.0 | 0.0 | 0.00 | 0.08 | 0.00 | 1008.6 |